GFSFLT2_sfc_thetae_003.txt.gz
Theta_e
337 337 337 337 336 337 337 339 339 338 338 337 336 336 335 334 333 332 331 331 331 330 330 330 330 330 329 329 330 332 338 336
335 335 333 334 336 334 335 336 337 336 335 333 332 332 330 330 327 329 330 330 329 328 327 327 325 326 326 325 325 328 332 332
334 332 331 330 332 334 334 335 336 335 333 331 331 334 331 328 327 327 327 327 327 325 324 322 320 321 322 322 323 326 327 327
332 333 331 329 328 333 335 334 338 339 337 335 334 333 331 329 328 326 325 325 324 323 322 320 319 322 325 323 326 327 328 327
331 333 333 331 328 333 333 333 336 337 337 336 334 333 333 332 330 329 329 325 326 324 326 327 326 326 326 326 325 325 326 328
335 334 334 335 335 333 333 331 332 334 335 335 334 332 331 330 328 328 328 329 327 327 328 324 323 323 321 321 321 322 321 323
335 336 335 337 334 334 333 332 332 334 334 335 332 331 330 328 327 327 327 328 327 327 323 316 314 314 318 316 315 316 318 316
333 331 333 332 329 330 330 330 332 332 333 334 333 331 330 328 328 327 327 327 327 324 316 313 313 313 314 313 312 314 316 314
327 329 329 329 326 324 324 324 324 326 328 329 329 328 328 327 327 327 327 327 325 318 314 313 312 311 310 311 312 312 313 311
324 324 326 327 325 325 324 324 323 322 321 322 323 323 324 325 324 325 326 326 323 318 315 310 308 309 309 309 309 309 310 310
322 325 325 325 323 322 323 322 322 321 320 319 320 321 322 322 321 321 322 321 320 317 313 310 307 308 307 308 308 307 308 307
321 321 321 321 319 316 314 314 314 314 315 315 316 317 320 320 320 319 319 316 315 313 311 309 307 308 304 305 308 308 308 308
317 316 316 314 311 311 311 310 310 311 311 311 311 312 314 316 316 317 317 314 315 314 311 308 307 307 305 305 306 307 307 307
311 309 308 308 309 309 309 308 309 308 309 310 311 311 311 311 313 313 314 313 314 314 311 309 307 308 304 304 300 303 304 305
306 307 309 309 308 309 309 309 309 308 307 307 309 310 310 310 310 310 312 313 311 313 313 310 307 308 307 304 299 297 302 304
310 309 308 308 308 306 305 303 302 305 305 306 306 308 309 308 307 308 309 310 310 311 312 312 310 306 304 303 304 302 298 297
308 308 307 307 305 305 305 305 305 305 304 304 305 306 307 305 304 305 305 306 307 308 308 308 307 306 304 302 300 298 299 295
307 307 307 308 306 304 304 304 304 304 304 303 303 303 303 301 302 302 302 302 302 302 302 302 301 301 300 299 298 295 295 294
306 306 306 307 306 303 304 305 305 303 302 302 301 300 301 300 300 301 301 301 301 301 301 300 300 299 298 295 296 294 294 293
305 305 305 306 306 302 303 305 303 301 301 301 299 298 299 300 300 301 302 302 301 301 302 300 298 297 294 293 293 292 292 292

GFSFLT2_sfc_thetae_006.txt.gz
Theta_e
336 337 337 337 338 338 339 340 339 338 337 336 337 336 335 334 333 331 331 331 330 329 329 329 329 328 328 328 329 330 338 339
336 338 337 339 338 335 336 337 337 335 334 332 332 333 331 329 327 329 329 328 328 327 326 325 325 326 325 324 325 328 335 337
338 337 337 339 337 335 333 335 336 335 334 331 332 338 336 332 327 326 327 326 326 324 322 320 319 322 322 322 323 331 331 332
338 340 338 338 334 339 339 337 340 341 340 340 338 338 337 332 330 326 324 323 322 322 322 323 323 324 326 325 327 328 327 328
338 340 341 338 336 338 336 337 337 339 341 341 339 338 337 335 334 332 332 327 328 327 327 326 327 326 324 326 325 325 323 324
338 339 340 341 336 335 337 334 335 335 336 340 338 335 335 334 331 329 328 328 329 327 327 327 323 320 320 320 320 319 318 321
340 341 341 338 338 336 336 336 334 335 335 335 337 333 332 330 329 327 326 327 326 326 325 322 317 315 316 316 316 317 318 317
341 341 340 335 334 336 335 335 332 332 330 330 334 334 330 327 325 323 323 323 324 324 323 320 316 315 315 316 315 315 316 316
339 339 335 333 330 331 330 329 328 327 326 328 329 329 327 327 323 323 323 323 325 326 324 321 317 314 313 314 314 315 314 314
337 333 330 329 329 330 329 329 330 327 327 326 327 327 327 326 323 322 323 324 322 322 321 319 317 314 313 313 313 313 313 313
334 332 325 324 327 327 328 328 325 323 323 322 323 323 324 324 322 322 324 322 321 320 320 319 316 314 312 313 313 313 312 311
331 326 325 326 328 325 322 322 323 321 319 318 318 318 319 320 320 321 322 321 320 319 319 318 316 315 311 310 312 313 313 312
324 323 319 320 319 316 316 316 317 318 317 318 318 317 317 317 317 318 319 318 318 320 318 317 316 316 312 311 311 313 313 311
317 315 316 316 317 317 317 316 316 316 316 316 316 314 313 313 314 314 315 314 315 316 317 315 316 316 311 309 305 308 311 311
315 315 315 315 315 315 316 317 315 314 313 312 311 312 311 312 312 312 313 313 311 313 314 313 311 314 316 309 304 303 307 310
315 315 314 313 314 313 313 311 309 310 311 311 310 310 310 310 310 311 311 311 310 310 310 311 311 309 312 312 313 311 304 302
315 314 314 313 312 313 312 310 310 310 310 308 308 308 309 309 309 309 310 309 309 310 310 310 310 309 308 308 307 308 308 303
314 313 312 313 313 311 310 310 310 308 307 305 305 306 306 307 307 308 308 307 307 307 307 306 306 306 305 303 302 296 298 300
311 311 310 311 311 309 309 309 309 307 306 304 303 303 304 306 306 306 306 306 305 307 306 304 300 299 298 296 295 293 293 294
312 310 309 309 308 308 308 309 309 306 305 304 302 303 304 305 305 305 305 305 305 305 302 300 300 300 299 297 296 297 295 292

GFSFLT2_sfc_thetae_009.txt.gz
Theta_e
334 335 336 338 338 338 339 339 338 338 336 336 337 335 334 333 332 331 331 330 330 329 328 327 328 328 327 327 328 330 334 335
335 336 335 337 338 336 337 337 337 335 334 333 333 334 333 331 329 330 329 328 327 326 325 324 324 325 325 325 326 328 332 331
336 335 334 334 332 333 334 336 337 336 335 333 333 336 335 333 329 327 326 325 325 324 323 322 323 324 325 325 326 329 329 327
337 338 336 334 330 334 334 332 335 337 337 337 336 337 336 333 330 329 328 327 327 326 325 326 326 325 324 325 325 325 323 324
336 341 339 335 331 332 333 333 333 334 337 337 336 335 335 333 332 331 331 327 327 326 326 326 327 324 322 322 322 323 321 320
335 340 337 336 334 333 333 332 331 332 333 335 334 331 332 331 328 327 327 325 326 326 325 327 325 320 318 318 319 318 316 317
334 339 335 332 333 333 333 333 332 332 332 331 330 329 330 328 326 325 324 323 323 323 323 323 321 319 317 317 317 317 318 317
334 337 335 330 331 332 333 331 329 329 327 327 329 329 328 326 324 323 322 322 322 322 323 323 320 318 317 316 317 316 316 318
333 336 333 329 329 329 328 325 326 327 326 327 326 327 327 327 324 323 323 324 326 324 323 322 321 319 317 316 316 316 316 316
332 333 330 328 328 327 327 327 327 326 326 326 325 325 325 325 323 323 325 325 323 322 320 319 319 318 318 316 315 315 315 315
330 334 325 325 327 326 327 326 324 322 322 321 323 322 322 322 321 323 327 323 324 323 322 322 319 318 317 318 317 315 316 314
330 331 324 324 327 326 322 322 322 322 321 320 320 320 320 320 319 322 322 319 320 321 323 321 322 320 316 316 319 318 316 317
328 325 323 322 321 319 317 317 318 319 319 319 319 318 316 316 315 316 317 315 317 319 319 319 318 320 318 318 318 319 318 316
322 320 318 319 319 318 319 318 318 318 318 318 317 316 315 313 313 312 313 312 316 317 317 315 316 318 314 314 309 312 316 316
318 318 317 317 318 317 317 317 317 315 315 314 315 314 312 312 312 312 313 313 311 314 314 313 310 313 316 312 306 304 310 314
318 317 316 316 317 315 315 312 311 313 313 313 312 312 310 310 310 310 311 311 311 311 309 311 311 307 310 310 313 312 305 304
318 316 315 315 315 314 313 313 313 314 313 311 311 310 310 308 309 310 309 309 309 310 309 308 307 306 305 306 307 306 306 300
317 315 314 314 314 314 314 312 309 309 308 307 307 307 306 307 307 308 308 308 307 306 307 306 304 304 303 302 299 297 296 295
315 314 314 315 314 312 311 310 310 309 307 306 304 303 304 306 306 307 306 306 307 306 304 301 300 297 298 299 299 296 296 294
315 314 313 313 313 312 313 311 310 308 306 304 302 303 304 305 305 306 305 304 304 303 301 301 299 300 297 296 297 297 297 295

GFSFLT2_sfc_thetae_012.txt.gz
Theta_e
331 333 336 338 338 338 339 339 339 338 337 337 337 336 335 334 332 331 330 329 328 327 326 326 326 328 329 329 328 329 326 328
333 333 335 334 334 336 337 337 337 336 335 335 335 335 335 333 333 329 328 326 326 325 324 324 325 325 327 328 327 327 323 326
333 332 333 336 333 334 336 338 337 335 335 334 332 334 333 331 330 330 328 327 327 326 326 326 325 325 326 327 327 321 323 320
335 334 333 331 328 332 336 335 336 335 335 335 335 334 333 331 331 330 330 330 329 329 328 328 327 322 320 325 321 321 318 318
336 338 335 334 332 330 332 332 332 335 338 333 335 332 335 331 330 330 328 328 327 326 326 324 323 320 317 317 317 316 315 315
336 336 335 334 333 332 333 331 330 331 331 333 331 329 330 327 325 323 322 321 321 322 320 322 322 318 316 314 315 315 312 313
333 336 334 336 332 334 333 332 331 330 329 330 329 327 327 326 324 323 322 321 320 319 318 319 319 317 316 314 313 313 314 313
335 335 333 331 331 330 331 329 329 328 327 325 327 326 325 324 322 322 321 320 320 318 317 318 318 317 315 315 313 312 312 312
333 334 332 330 330 329 329 324 324 325 325 325 324 324 323 323 322 321 321 322 321 319 318 317 316 317 315 315 314 313 312 312
331 332 330 329 330 326 326 327 325 324 325 324 324 323 322 321 320 320 322 322 320 318 317 316 315 314 313 314 312 312 312 312
329 333 328 326 327 325 325 325 323 322 320 321 321 321 321 319 318 319 320 318 317 317 315 315 314 313 314 313 313 312 310 312
330 331 325 325 327 325 322 320 321 321 321 318 319 319 317 316 314 316 317 313 312 313 313 312 312 312 314 314 313 314 314 311
324 323 323 322 321 319 317 316 318 318 318 318 317 316 315 313 312 311 311 310 310 310 309 307 308 309 309 309 310 312 313 313
320 319 318 318 317 317 317 317 316 316 318 316 316 315 313 311 311 310 309 308 307 308 308 306 305 306 305 304 300 304 307 310
317 316 316 316 317 316 315 315 314 313 312 312 313 313 312 310 309 309 308 307 305 305 306 304 303 304 304 302 297 296 301 305
317 317 316 316 316 314 312 311 310 312 314 312 311 311 310 308 307 307 307 307 305 305 305 304 303 300 302 305 302 299 295 296
317 317 315 316 315 314 312 313 311 310 310 309 308 308 307 306 306 305 305 304 305 305 303 303 302 299 298 297 296 296 297 293
317 315 314 315 315 314 311 309 309 308 307 305 303 303 303 304 305 304 305 304 304 303 302 299 298 298 298 297 295 294 293 292
316 315 313 314 313 312 312 310 309 306 304 302 301 300 301 301 303 303 302 302 303 302 301 300 299 297 295 295 296 295 295 293
315 314 312 312 313 312 311 309 306 305 303 301 300 300 300 302 302 302 301 300 299 299 298 297 296 297 294 296 294 294 294 293

GFSFLT2_sfc_thetae_015.txt.gz
Theta_e
330 333 336 337 337 337 337 338 337 337 338 337 337 336 336 335 333 331 329 327 326 326 326 327 328 328 328 328 328 328 323 321
326 328 330 330 332 335 335 335 335 334 335 335 334 334 334 334 333 332 330 328 326 326 327 328 327 326 326 326 326 326 317 322
326 327 328 327 328 333 335 335 335 333 334 334 331 330 330 329 330 330 330 330 329 329 329 328 327 326 326 327 326 320 318 323
324 324 328 327 330 330 330 333 332 331 331 330 328 328 328 329 329 330 330 329 329 329 330 328 327 321 316 322 317 317 313 317
328 325 324 324 324 326 328 328 329 329 329 326 324 327 325 323 324 324 323 327 323 325 323 323 320 317 314 311 311 310 310 311
327 325 325 323 325 324 323 322 324 325 325 324 322 321 319 319 317 316 316 316 317 316 315 315 316 316 313 311 310 310 310 309
327 325 324 323 324 323 322 323 321 323 321 321 320 321 317 317 317 316 315 315 314 313 313 314 315 315 314 313 310 309 310 310
327 325 326 323 323 323 321 319 320 321 318 319 320 318 316 317 316 316 315 315 316 314 313 313 314 315 314 313 312 309 309 309
328 329 328 324 321 321 320 314 317 317 317 317 318 318 316 316 315 315 316 317 315 315 314 314 313 313 312 313 312 311 310 309
330 332 328 324 322 319 318 317 315 316 317 317 316 317 315 313 312 312 314 315 314 313 313 312 311 310 310 310 311 311 309 309
322 325 325 324 322 317 316 315 314 313 313 313 314 314 313 310 309 309 311 310 309 309 309 308 307 307 309 309 309 308 309 312
325 324 322 318 316 314 313 312 313 313 311 311 312 311 310 308 307 307 307 307 306 306 304 305 304 305 309 308 307 309 310 310
316 316 312 312 311 309 309 308 310 310 310 312 310 309 310 307 306 306 306 305 303 304 303 304 303 304 302 302 302 304 304 306
311 310 311 310 309 309 310 310 309 310 310 310 310 309 307 308 304 304 304 304 302 301 301 301 301 302 299 298 295 298 300 303
309 309 309 310 309 309 308 307 307 307 308 308 309 307 305 304 303 302 302 303 301 300 301 300 298 299 299 297 293 291 294 299
308 309 309 310 309 307 305 305 305 307 305 305 304 303 303 303 302 302 301 301 300 300 303 299 298 296 297 300 296 295 291 289
307 308 309 309 308 307 306 304 304 305 304 301 301 301 301 302 302 301 300 301 300 299 298 297 297 296 295 297 296 293 291 288
308 308 308 309 310 308 305 303 303 301 300 298 298 299 299 299 300 299 300 299 298 298 298 297 298 297 297 296 295 293 293 291
307 308 308 308 307 306 304 303 301 299 297 296 296 296 296 297 297 297 297 297 296 296 296 297 297 295 295 293 292 291 293 292
306 307 307 306 305 304 303 302 301 299 297 297 296 296 295 296 296 296 296 296 295 295 296 294 294 293 292 292 292 292 293 293

GFSFLT2_sfc_thetae_018.txt.gz
Theta_e
331 334 337 338 336 336 336 338 338 338 338 338 337 336 335 335 333 331 329 327 326 327 328 328 328 328 327 327 326 327 318 317
327 329 330 330 331 334 334 335 335 335 335 335 334 333 334 334 333 332 331 329 328 329 329 328 328 327 327 327 326 324 316 324
324 325 326 327 329 332 334 335 334 333 333 333 330 329 329 328 330 329 331 330 330 330 330 329 327 326 326 326 324 316 313 318
323 324 324 325 330 330 329 331 330 329 329 328 327 326 326 328 328 330 331 330 330 330 330 329 328 320 318 317 310 310 310 312
323 326 325 322 324 325 326 327 327 328 328 327 325 325 325 324 322 323 321 324 321 321 321 318 318 317 315 310 309 308 308 309
322 323 323 320 321 324 325 325 326 326 324 322 320 317 316 315 314 314 314 313 314 313 312 312 312 314 313 311 310 308 308 308
322 322 320 321 322 321 321 321 322 322 319 320 319 317 314 315 314 314 313 313 312 312 312 312 312 313 313 313 312 309 308 308
324 324 323 321 321 321 320 318 320 318 317 318 318 318 314 314 313 313 313 314 313 312 311 311 311 311 312 313 312 311 309 307
324 324 323 323 321 321 318 314 319 315 314 316 316 316 314 312 310 309 310 311 311 310 310 310 308 309 308 310 310 310 310 309
326 328 324 322 321 318 318 315 314 314 315 315 314 313 311 308 307 306 308 307 307 307 307 305 305 304 304 305 306 308 308 308
325 324 322 321 320 316 314 312 311 311 311 311 310 310 310 307 305 305 306 305 305 304 303 302 302 302 304 304 304 304 306 310
322 322 322 318 313 311 311 310 311 309 309 309 308 308 308 305 305 306 305 304 303 302 301 301 301 301 304 303 302 303 304 303
314 314 313 313 309 307 308 307 307 307 308 308 308 307 306 305 304 303 303 302 301 301 300 299 300 300 298 299 299 300 300 300
309 308 308 308 308 309 309 307 307 308 309 307 306 304 303 303 301 300 301 300 299 298 298 298 299 299 296 296 293 296 296 297
307 307 308 308 308 307 307 307 306 305 304 302 302 303 303 301 300 300 299 299 298 298 298 297 296 297 297 295 291 289 292 294
306 307 307 307 307 305 305 304 303 303 301 299 299 300 300 300 300 299 298 299 298 298 299 296 296 294 296 298 298 296 291 289
305 306 307 307 306 305 305 301 301 301 299 298 298 299 299 299 299 298 297 297 296 296 295 294 295 293 294 294 292 292 294 290
304 306 306 307 306 304 302 301 300 298 296 296 298 298 297 297 297 296 295 295 294 294 294 294 293 293 293 293 292 290 289 288
305 305 305 306 304 302 301 299 297 297 298 298 297 296 295 294 294 294 294 294 294 294 294 295 294 294 292 292 291 290 292 291
304 303 302 302 303 301 300 299 300 300 299 297 296 294 293 293 294 295 295 294 294 293 292 292 293 291 290 290 291 292 292 293

GFSFLT2_sfc_thetae_021.txt.gz
Theta_e
332 335 338 338 337 337 337 337 338 338 338 338 337 336 335 334 332 330 328 327 328 329 329 329 329 329 329 328 326 326 314 322
327 328 330 329 330 334 335 335 335 336 336 335 333 333 334 334 333 332 331 329 330 331 330 330 330 329 328 326 325 321 311 316
324 325 326 326 327 331 333 335 334 334 333 333 330 327 326 327 330 330 331 330 330 330 331 330 328 327 326 324 319 310 308 310
322 323 324 325 330 328 327 330 329 328 328 327 326 325 324 327 328 330 331 330 330 330 329 328 324 318 317 318 309 308 307 308
322 321 321 322 324 326 325 326 326 326 327 326 324 325 323 323 320 320 316 318 316 316 315 313 312 314 314 312 309 309 306 307
322 323 322 320 322 323 323 325 325 325 326 323 320 316 315 313 312 312 312 312 311 311 311 311 311 312 312 312 311 309 307 307
322 323 321 320 320 321 322 323 325 325 322 320 318 315 312 313 312 312 311 312 311 310 310 310 309 310 310 310 310 310 309 307
321 321 320 320 319 320 320 320 323 321 318 317 318 314 313 312 310 308 308 309 308 308 307 306 305 306 306 307 307 308 309 308
320 321 320 320 318 318 317 317 319 316 315 315 315 314 311 308 306 305 306 306 306 305 304 303 303 304 303 305 306 306 306 307
324 326 324 321 319 317 313 312 312 313 313 312 311 310 308 305 304 304 305 304 304 303 302 301 300 300 300 301 302 303 304 305
322 324 323 322 320 316 311 310 309 309 309 307 308 308 307 304 304 304 304 303 302 301 300 300 298 298 301 301 300 300 302 305
323 323 321 317 312 310 309 308 308 307 306 305 305 305 305 305 303 302 302 301 300 299 298 299 298 298 302 301 299 300 299 298
319 318 314 309 309 307 306 305 307 308 308 307 305 305 304 301 300 300 300 298 297 298 297 297 298 299 296 297 297 297 297 296
307 307 307 307 307 308 311 312 311 309 305 304 304 302 302 301 299 298 298 298 298 297 297 296 296 297 294 293 290 293 295 297
305 306 306 308 310 309 307 307 306 302 300 298 300 301 300 299 299 298 298 298 296 296 295 295 293 295 294 292 288 286 291 292
304 305 305 306 305 304 304 303 302 301 298 297 297 298 298 300 298 299 297 296 295 295 296 293 293 291 293 296 293 292 286 286
303 304 305 305 304 304 304 301 300 298 297 296 298 299 298 300 299 296 294 294 293 293 293 292 292 291 291 291 290 289 289 287
302 304 304 304 303 302 301 299 298 296 297 298 299 299 298 296 296 294 294 293 293 292 292 291 291 291 290 290 291 290 289 289
302 303 303 303 301 300 299 298 297 297 296 296 295 295 293 292 293 293 293 293 293 292 291 291 290 289 288 288 289 288 291 290
300 300 300 301 300 299 299 298 297 297 296 295 294 293 292 292 293 293 293 293 292 292 291 290 290 288 286 287 287 288 289 291

GFSFLT2_sfc_thetae_024.txt.gz
Theta_e
339 337 340 339 338 338 337 338 338 338 338 337 336 335 334 333 332 331 331 331 332 332 332 332 331 330 330 327 324 324 311 320
329 331 332 330 331 335 335 335 335 335 336 335 333 333 332 332 331 330 332 332 332 332 332 331 331 330 328 326 321 317 308 310
324 325 325 325 326 331 334 335 334 334 334 333 329 325 325 326 330 331 332 331 332 331 330 329 326 323 324 325 318 309 307 308
321 322 323 323 329 327 326 329 328 328 328 327 325 324 323 326 327 328 326 323 324 323 322 320 317 313 314 317 311 310 308 308
321 322 322 322 324 324 324 325 325 325 325 324 324 324 322 322 317 313 312 317 312 313 312 311 311 311 311 311 311 311 309 308
320 320 320 320 321 323 322 323 324 324 324 325 322 317 315 311 312 311 311 311 310 310 309 309 308 308 308 308 309 309 309 309
319 320 319 319 320 321 321 322 324 324 323 320 317 313 312 311 310 309 308 308 307 306 306 305 305 306 306 306 306 308 308 309
320 320 320 319 318 319 320 320 321 322 316 316 316 313 311 309 306 305 306 305 305 305 303 302 302 303 302 303 305 305 306 306
319 322 319 318 317 319 321 318 319 315 314 314 314 311 307 304 304 304 304 304 303 303 302 302 300 301 300 302 303 303 303 305
323 325 322 320 319 318 314 315 313 312 310 308 308 307 305 304 303 302 303 303 302 301 300 299 298 298 298 300 300 302 302 304
321 322 320 320 318 314 310 309 309 306 305 305 306 305 305 302 303 302 304 301 299 299 298 298 297 298 300 300 299 299 300 301
322 321 320 317 313 312 310 308 305 306 306 309 304 306 305 305 303 300 299 298 298 298 297 298 297 298 300 300 298 298 299 297
321 321 319 310 309 308 306 304 306 310 305 304 305 303 301 299 298 298 298 297 297 298 297 296 297 297 295 295 296 297 296 296
314 313 312 308 309 308 308 308 308 305 302 300 300 299 299 299 297 297 298 297 296 296 295 294 295 295 293 292 289 291 294 295
305 306 306 307 308 306 304 304 303 299 297 296 297 299 299 298 298 297 297 297 295 294 293 292 291 293 293 292 287 285 289 292
302 304 304 305 304 303 302 301 300 298 296 296 296 298 298 299 297 298 296 295 294 294 295 292 292 290 292 294 292 290 287 286
301 304 304 303 303 303 301 298 297 296 295 296 298 299 299 298 297 294 293 293 292 292 291 291 291 290 289 289 289 289 289 288
302 304 303 303 301 301 300 297 296 295 295 298 298 296 296 294 295 293 293 292 291 291 291 290 290 289 289 288 288 288 286 285
301 301 300 301 300 299 299 298 297 296 296 295 294 294 293 291 293 292 292 292 292 292 291 290 289 289 287 287 287 287 287 287
299 299 300 300 299 298 298 297 296 296 296 295 294 293 292 291 292 293 293 293 292 292 291 290 289 288 287 286 286 286 285 286

GFSFLT2_sfc_thetae_027.txt.gz
Theta_e
343 344 343 340 339 339 337 338 338 339 338 337 336 334 334 334 333 333 333 333 333 333 332 332 331 329 328 327 323 321 320 319
339 343 342 342 340 336 335 336 336 336 336 335 333 332 333 333 330 332 333 333 332 331 331 328 326 326 327 325 321 321 321 320
338 339 339 337 337 336 335 336 335 334 335 333 330 333 332 332 330 332 329 328 329 328 325 323 323 323 324 323 322 323 322 321
334 335 333 333 332 335 335 334 334 335 334 334 334 333 333 332 329 325 324 324 324 323 321 322 321 320 320 321 320 320 321 321
329 331 331 330 331 333 332 333 333 334 333 334 334 333 334 332 325 324 324 321 320 320 319 317 317 316 316 316 317 317 317 317
327 328 329 329 330 330 331 332 333 333 334 334 334 331 326 324 322 320 320 319 318 317 315 316 314 313 312 312 314 314 313 313
326 327 327 327 329 330 331 331 332 333 333 330 328 325 323 321 318 317 316 317 316 314 314 312 312 311 311 310 311 312 312 312
326 327 327 327 326 328 329 330 330 329 327 327 325 324 321 316 316 314 314 314 314 313 312 311 310 309 309 310 310 311 311 312
326 326 327 325 325 324 321 322 322 322 323 322 322 318 316 316 315 314 313 313 313 312 310 310 308 307 308 309 309 310 309 311
328 326 325 324 324 318 316 318 320 318 317 315 315 315 316 314 311 311 311 309 308 308 307 307 307 307 307 307 308 308 309 309
325 327 326 324 318 314 313 315 314 312 312 313 314 312 312 310 308 308 309 308 308 307 307 307 305 305 303 305 305 305 309 307
326 327 322 316 315 314 313 313 312 311 312 312 311 309 310 309 308 308 309 307 306 306 304 304 304 303 301 302 302 306 309 306
326 322 318 315 314 312 312 311 311 311 309 310 309 308 308 308 307 307 307 305 304 304 303 302 301 303 300 299 300 306 305 304
324 323 317 314 315 316 318 316 314 309 307 307 307 307 307 306 307 306 305 304 303 303 302 300 300 302 298 297 293 296 302 300
323 321 316 316 316 316 314 311 308 306 306 305 306 306 306 306 306 306 305 304 302 302 301 300 297 299 301 296 291 290 293 297
314 316 314 314 313 313 312 312 311 308 307 306 306 305 305 305 305 304 304 303 301 301 301 300 298 295 297 298 297 294 288 287
311 311 311 311 311 312 310 308 307 306 306 305 306 306 305 304 304 303 303 303 302 300 300 299 298 296 294 294 293 293 293 289
311 310 309 310 310 310 309 307 306 306 306 306 306 306 306 305 302 302 302 301 300 299 299 298 297 296 295 294 291 289 288 288
310 309 308 308 309 309 309 308 307 306 305 305 304 304 303 303 301 301 301 301 300 300 299 298 297 295 294 292 293 292 292 289
308 307 306 307 307 307 306 305 305 305 304 304 303 303 302 302 301 301 301 301 300 300 299 298 298 295 294 293 292 292 291 290

GFSFLT2_sfc_thetae_030.txt.gz
Theta_e
345 345 344 341 340 339 338 339 340 339 339 337 336 335 335 334 334 334 334 334 333 332 329 329 328 328 327 325 323 323 324 323
344 342 342 342 340 337 336 336 337 337 337 334 333 333 334 332 334 333 331 332 331 328 327 326 327 326 325 325 324 326 324 323
342 340 339 339 336 336 334 336 336 335 335 333 330 334 334 332 330 329 329 329 327 326 324 325 325 325 324 323 325 322 323 322
340 339 338 335 330 334 334 333 336 336 336 336 338 339 337 333 328 326 325 324 324 323 323 324 322 321 320 322 319 320 320 320
336 337 335 331 331 332 332 336 337 339 340 340 340 340 340 337 330 330 329 325 325 323 321 320 321 319 317 317 317 317 317 316
330 331 333 333 331 332 334 336 338 339 340 340 340 338 337 333 330 329 328 325 323 321 321 320 318 317 316 316 316 315 315 315
328 330 331 332 334 335 336 338 338 338 339 337 338 335 332 329 327 326 325 325 322 321 319 317 317 316 315 315 314 315 315 315
330 329 331 332 334 336 336 336 337 337 331 330 330 331 331 326 323 323 324 322 320 318 316 315 315 315 314 315 314 314 314 314
330 331 332 333 334 333 330 328 329 329 327 325 327 326 323 323 323 321 317 316 315 314 314 315 315 314 314 313 313 313 312 312
332 332 333 331 328 326 325 324 325 324 323 322 321 320 320 318 317 314 315 315 315 314 314 313 311 311 309 308 309 309 308 311
331 333 330 324 322 321 324 321 320 319 317 317 317 314 314 315 315 315 315 314 314 312 310 309 307 307 306 305 306 306 306 307
332 332 327 325 318 319 319 320 318 317 317 316 315 315 315 315 314 315 314 312 310 308 307 307 306 305 303 302 305 305 306 308
332 330 325 325 322 316 316 315 314 314 315 315 315 314 314 315 315 313 311 309 308 308 306 305 304 305 303 302 303 305 308 307
331 329 330 329 326 323 321 320 320 318 315 314 314 313 313 313 312 311 309 308 308 307 305 302 302 303 300 299 296 299 302 305
329 330 329 326 324 322 321 320 316 314 313 313 313 313 312 312 311 310 309 307 305 305 304 302 299 301 302 298 294 292 295 299
330 326 323 322 322 320 318 318 316 317 317 315 313 312 311 310 309 309 308 307 306 304 303 302 301 298 299 299 299 297 291 290
327 324 320 319 319 318 318 316 315 314 313 311 313 312 310 309 309 309 308 307 306 305 303 303 301 298 297 296 296 295 295 291
321 318 317 317 317 317 316 314 312 312 311 308 307 308 308 309 309 309 308 307 305 304 303 302 300 299 297 295 293 292 291 290
317 316 314 316 315 314 312 310 308 306 306 306 306 306 306 306 308 308 307 306 305 303 302 301 300 297 296 294 295 294 293 292
316 315 313 313 312 310 309 308 310 309 308 307 305 303 304 306 306 305 305 305 304 303 301 300 300 298 295 295 294 293 293 292

GFSFLT2_sfc_thetae_033.txt.gz
Theta_e
342 341 343 341 339 338 338 339 340 340 338 336 336 336 336 335 335 334 334 333 331 329 328 328 328 327 327 327 327 328 325 323
343 342 340 340 339 337 337 338 337 337 335 334 333 333 333 334 333 331 332 331 329 327 327 327 327 326 325 325 325 326 323 322
339 336 337 337 334 335 336 337 336 335 333 333 331 332 333 333 329 330 329 328 326 325 325 324 326 327 324 322 325 320 320 320
336 336 336 334 328 332 332 333 333 335 334 334 335 335 336 331 328 328 327 325 325 324 325 323 325 321 320 323 319 319 318 318
334 336 335 330 330 331 331 333 335 336 337 338 338 336 336 335 330 328 330 327 326 323 323 322 322 320 319 319 318 318 317 317
332 332 331 332 330 330 333 333 336 336 338 338 338 336 335 332 328 329 327 325 324 323 322 322 321 320 319 318 318 317 316 316
328 330 331 333 333 334 336 336 337 338 339 337 335 333 336 331 328 325 325 323 323 323 321 319 319 318 318 317 316 316 316 315
328 329 332 334 335 337 339 339 337 336 336 336 332 331 331 328 327 323 323 322 320 317 316 317 317 317 316 316 315 314 314 314
329 332 334 336 335 332 330 329 328 328 332 332 330 330 326 328 325 318 317 318 318 318 317 317 316 314 312 312 311 310 310 309
331 331 334 333 330 326 327 327 327 327 327 327 324 322 321 318 318 319 317 317 316 316 314 311 310 310 309 309 307 307 308 308
331 334 332 330 326 324 326 325 323 325 321 321 319 317 318 318 317 318 318 317 316 313 311 310 308 307 305 306 307 305 307 306
333 332 331 329 327 325 324 322 322 320 318 318 317 318 319 319 318 318 316 314 312 311 310 308 306 304 303 304 306 306 306 307
332 332 331 328 327 324 323 321 320 319 318 319 319 318 317 318 317 316 314 312 310 310 307 305 303 304 302 301 303 306 307 307
330 330 330 329 329 326 325 322 321 320 320 319 318 317 316 316 314 312 312 310 309 308 307 304 303 303 299 299 295 297 301 303
329 330 329 330 328 325 323 323 321 317 316 316 316 316 315 313 312 311 310 308 305 307 306 303 300 301 302 298 293 291 295 298
332 331 330 327 325 322 321 318 314 317 318 317 316 314 313 311 310 310 309 308 307 306 305 304 302 298 299 299 299 297 291 289
330 328 324 323 323 322 321 318 319 318 317 315 315 314 313 311 310 310 309 308 307 307 305 304 302 299 298 297 296 295 295 291
327 322 320 321 321 320 319 318 315 314 312 310 308 308 308 309 308 309 308 307 306 306 305 303 302 300 299 297 294 292 291 291
323 320 318 319 319 318 317 315 311 308 308 307 306 306 305 305 306 306 305 305 304 304 303 302 302 300 299 297 296 295 294 292
318 318 317 318 317 314 312 309 308 307 308 307 304 303 304 305 303 303 303 303 303 303 303 302 302 300 299 297 296 295 295 293

GFSFLT2_sfc_thetae_036.txt.gz
Theta_e
338 341 342 339 337 338 338 338 338 337 337 337 336 336 336 336 336 335 334 332 330 329 329 329 329 327 326 325 325 327 321 320
337 339 339 335 335 336 337 336 335 335 335 334 333 333 334 335 332 334 333 330 328 327 326 326 326 325 325 323 325 324 315 314
336 336 335 333 334 336 336 336 335 333 333 333 330 329 331 329 330 331 330 329 326 324 325 323 327 326 325 325 324 315 315 313
334 336 333 331 328 331 331 332 330 330 330 330 331 334 330 327 327 329 328 326 324 324 324 326 324 316 316 321 314 315 314 313
332 333 332 327 326 328 330 331 332 334 334 335 336 335 332 328 324 322 323 325 322 320 320 319 319 317 316 315 315 313 312 312
330 330 331 328 328 329 332 333 333 336 335 335 335 333 332 328 327 327 323 323 320 321 318 318 316 317 315 315 315 313 311 311
328 330 331 331 332 334 334 333 335 336 335 335 334 331 331 329 326 324 322 320 316 314 314 313 315 315 315 314 312 310 309 310
327 328 332 332 334 334 333 335 336 333 333 331 330 328 328 327 320 317 316 315 315 313 314 315 313 312 309 310 310 308 305 307
326 329 332 334 334 331 327 326 326 328 330 330 329 327 323 320 317 315 314 314 315 315 314 311 309 309 307 307 307 303 303 306
328 331 333 330 327 326 325 326 326 325 325 325 321 319 319 318 315 315 314 315 313 312 309 307 306 305 303 302 303 303 303 304
329 333 329 326 325 325 325 325 324 322 320 319 318 317 318 316 315 315 315 314 312 309 307 306 302 301 300 299 301 301 302 303
331 331 329 327 326 326 324 323 322 321 319 318 316 316 318 317 316 314 313 311 309 308 305 304 301 300 302 300 299 301 301 301
330 328 327 325 325 323 322 320 319 318 318 318 318 317 316 315 314 313 311 309 307 306 303 301 300 300 297 296 297 298 297 299
329 328 327 327 327 326 324 321 319 318 318 318 317 316 315 314 311 310 309 306 305 304 302 300 299 299 295 294 290 293 296 297
328 328 327 328 327 325 322 321 319 316 315 314 315 315 314 311 310 308 307 305 302 303 302 300 296 297 298 293 289 287 291 293
329 328 328 329 326 321 319 317 314 315 314 315 313 313 312 311 309 307 306 305 304 303 302 300 298 295 296 298 295 292 287 285
328 329 328 326 323 321 320 318 317 316 315 313 313 313 312 311 309 307 306 305 304 303 302 301 300 296 294 293 292 292 290 286
328 326 322 322 321 321 320 317 315 313 312 310 309 307 306 307 306 305 304 303 302 301 301 300 298 297 296 294 293 291 289 287
324 321 318 320 320 319 318 316 312 308 307 305 305 304 303 303 303 301 301 301 301 300 299 299 298 296 294 294 294 294 293 290
321 318 317 317 318 316 314 311 308 306 307 305 303 301 301 302 300 300 299 299 298 298 298 298 298 296 294 294 294 294 292 290

GFSFLT2_sfc_thetae_039.txt.gz
Theta_e
336 339 338 338 338 337 336 336 336 336 336 336 336 336 336 337 337 335 333 332 330 328 327 327 327 327 328 326 324 325 312 316
337 335 334 334 334 335 334 334 334 334 334 333 333 333 334 333 334 334 333 330 327 325 324 325 325 323 327 325 323 321 310 314
333 332 331 331 332 334 333 334 332 332 332 331 329 328 329 327 329 331 330 327 324 325 323 325 325 323 324 324 320 312 310 313
333 331 330 329 332 330 329 329 327 326 327 328 327 327 325 323 328 329 328 326 324 324 323 324 321 313 313 318 311 310 310 309
331 331 328 324 327 327 327 326 325 326 327 326 327 328 324 322 320 321 319 324 317 318 317 315 312 313 311 312 312 310 308 309
330 330 325 322 326 326 326 326 328 328 330 330 327 327 326 323 319 322 319 317 313 312 311 311 312 313 312 310 309 306 306 306
325 326 322 323 325 328 329 329 330 330 330 328 325 323 323 321 318 315 313 313 310 309 311 311 310 309 307 307 308 305 302 302
323 324 324 328 329 329 329 330 329 328 328 326 326 324 319 315 314 312 311 310 311 311 309 307 306 306 305 305 304 301 301 300
322 323 328 329 326 323 323 322 325 325 325 324 321 320 316 314 312 309 309 310 310 308 306 305 304 304 302 301 301 301 301 301
323 328 327 323 322 321 322 322 322 322 322 317 315 316 314 312 311 309 310 310 309 306 304 303 301 299 297 296 298 299 300 300
324 327 323 321 321 323 322 320 319 319 316 314 314 314 313 310 310 310 309 308 306 305 303 300 297 297 298 297 297 297 297 300
327 324 322 320 321 320 319 317 317 315 314 313 312 312 313 311 310 309 308 306 304 303 301 300 298 296 299 297 295 296 296 296
325 322 321 321 319 318 317 314 313 312 313 312 312 313 312 311 310 308 305 304 301 301 299 297 296 296 293 293 294 294 294 294
324 323 323 321 322 320 318 314 312 312 312 312 312 311 311 309 306 304 303 301 300 299 298 297 296 295 292 290 287 290 292 294
324 323 322 322 322 320 316 313 312 309 309 309 309 310 309 307 306 304 302 301 299 298 297 296 293 294 294 291 287 284 287 290
326 325 324 323 324 318 313 311 308 308 308 308 308 308 307 307 305 304 302 301 299 299 300 297 295 292 293 296 292 289 285 284
326 326 326 324 323 318 313 311 310 309 309 307 307 307 307 307 304 302 300 300 299 298 297 298 297 294 292 291 290 289 288 284
325 322 322 323 318 315 313 311 308 308 308 308 308 305 302 301 301 298 298 297 296 296 295 296 295 294 293 292 291 288 287 286
321 322 318 316 315 313 311 308 307 305 303 300 299 300 299 297 298 297 296 296 296 295 294 294 294 294 292 292 292 292 292 290
321 319 315 313 312 311 307 303 301 301 300 298 298 299 299 298 297 296 295 295 294 294 293 293 293 292 293 295 293 293 294 291

GFSFLT2_sfc_thetae_042.txt.gz
Theta_e
333 335 339 337 336 335 335 336 336 336 336 336 336 336 336 336 335 333 332 330 330 329 328 327 328 328 326 325 323 323 313 316
332 331 334 334 333 334 334 334 335 334 334 334 333 334 334 335 334 333 331 329 328 328 328 328 327 326 326 324 321 319 312 311
331 330 332 331 331 332 333 334 333 332 332 332 329 327 326 328 329 330 329 326 324 326 328 326 323 324 325 323 318 308 309 310
330 329 330 330 330 328 326 328 326 326 326 325 324 325 324 324 328 329 328 325 324 326 326 322 318 311 311 315 309 307 307 307
329 329 329 327 327 325 324 322 322 322 324 324 324 326 322 321 320 319 318 321 315 314 313 312 311 310 308 307 306 304 302 304
329 328 326 323 324 323 323 322 324 323 325 326 325 322 320 318 316 316 317 312 310 310 310 310 308 307 306 305 304 302 299 301
327 327 322 322 323 323 324 326 326 327 324 324 326 323 321 318 315 313 311 309 309 309 307 306 305 304 304 302 302 300 299 299
328 326 320 322 325 326 326 328 327 326 323 323 322 320 316 313 310 309 309 310 309 307 305 303 302 302 300 300 300 299 299 299
324 323 324 327 327 328 324 325 325 323 322 321 320 316 314 311 309 308 308 309 306 305 303 301 299 300 298 298 298 298 299 298
322 327 326 324 321 321 322 321 321 320 316 315 315 314 312 310 308 308 309 308 305 303 301 299 298 297 295 295 296 297 297 297
323 325 323 320 321 321 319 319 318 317 313 312 313 313 311 309 309 308 307 305 304 303 300 298 296 295 296 295 294 294 295 297
325 323 320 319 319 317 316 316 315 314 312 312 312 311 311 311 308 307 306 303 302 301 298 298 296 295 297 295 294 293 293 293
323 320 318 319 317 315 314 313 312 312 311 311 310 311 312 309 307 304 303 300 300 300 297 296 295 294 292 292 292 292 292 291
322 320 319 319 319 316 315 313 312 311 311 310 311 310 308 306 304 302 301 300 299 298 297 295 294 294 291 289 287 289 291 292
321 321 319 320 320 318 314 312 310 308 307 307 308 309 308 306 304 302 300 300 298 297 296 295 293 293 293 291 286 284 286 289
323 322 320 320 320 317 313 311 309 308 307 306 307 308 306 306 304 302 300 300 298 298 298 296 294 292 292 294 291 289 285 283
322 322 322 321 321 318 314 310 309 307 306 306 305 305 305 304 302 300 299 298 297 296 296 294 294 292 291 290 289 288 287 285
322 323 324 324 321 315 314 311 308 307 305 305 304 303 300 300 299 298 297 296 295 294 293 292 292 292 292 291 290 288 287 286
322 324 322 322 318 314 311 310 308 308 307 304 300 298 298 297 297 298 297 296 294 293 292 291 291 291 290 290 291 291 293 291
322 322 319 314 312 311 310 308 305 302 302 301 300 299 298 298 297 297 295 295 294 292 293 292 291 291 290 290 291 291 291 290

GFSFLT2_sfc_thetae_045.txt.gz
Theta_e
332 333 335 337 336 336 336 337 338 337 337 336 336 335 334 334 333 332 332 331 331 331 330 328 327 327 326 324 324 321 311 313
328 328 331 331 331 334 335 335 336 336 336 335 334 334 334 333 332 331 330 330 331 330 329 328 327 326 325 322 319 317 309 309
326 326 330 331 329 332 334 335 335 333 333 333 329 326 326 325 328 329 329 329 330 329 327 324 321 322 323 320 313 305 305 307
326 326 327 330 330 328 327 329 327 326 326 325 324 323 320 325 327 329 327 327 328 325 323 321 313 307 308 310 303 302 302 307
327 324 329 328 325 325 323 323 322 323 323 323 324 323 320 321 320 317 316 318 311 312 310 309 306 305 304 303 301 299 298 302
327 327 328 325 324 324 322 321 321 321 322 323 323 321 316 315 314 315 311 310 309 308 307 306 304 303 302 301 299 298 297 298
327 328 326 323 322 322 321 321 322 325 325 326 324 321 317 316 314 311 308 308 307 305 304 303 302 300 300 299 298 298 298 297
326 326 323 321 321 321 322 325 326 323 322 322 323 320 316 312 309 308 308 308 306 305 302 300 299 298 298 298 297 297 297 296
325 326 320 320 321 323 325 325 325 322 321 321 318 315 312 309 308 307 308 306 304 302 300 299 298 297 295 296 296 296 296 296
325 327 321 323 323 321 322 323 322 320 317 317 315 313 311 308 307 307 307 305 303 301 299 297 296 295 294 294 294 295 295 294
322 323 322 322 320 320 320 319 318 316 313 313 313 312 310 308 308 308 306 304 302 301 298 296 294 294 294 293 293 293 293 295
323 323 320 319 319 317 316 316 315 313 311 311 311 310 310 308 307 305 304 302 300 299 297 296 295 294 296 295 292 292 291 291
322 319 318 319 317 315 313 312 311 311 311 311 311 310 310 307 305 304 302 300 299 298 296 295 294 293 291 291 291 291 290 290
319 320 318 319 318 315 315 313 312 311 310 310 309 310 309 307 303 302 300 299 298 297 296 294 294 293 290 288 287 289 290 290
320 319 319 319 317 315 312 310 309 308 307 306 308 308 307 305 303 301 299 298 296 295 295 294 292 292 293 292 286 284 285 288
321 320 319 318 318 315 312 309 308 309 307 306 306 307 306 304 302 301 299 298 297 297 297 294 293 292 291 293 290 289 285 283
320 320 319 319 319 317 313 310 309 307 306 305 305 304 304 303 301 300 299 298 295 295 295 293 294 292 291 289 288 287 286 285
319 319 319 319 318 318 314 311 307 306 304 303 302 300 299 299 299 297 296 295 294 293 293 292 291 291 291 289 289 288 286 284
319 319 319 321 320 319 314 312 309 308 305 304 300 297 295 296 296 295 296 296 295 293 293 292 291 291 290 290 290 289 290 288
320 320 320 322 321 318 313 310 309 308 307 305 301 299 297 296 297 297 297 296 295 294 294 292 292 290 289 290 289 290 290 289

GFSFLT2_sfc_thetae_048.txt.gz
Theta_e
331 331 335 336 336 337 337 338 338 338 337 337 336 335 334 333 333 333 333 332 331 330 329 329 328 326 326 325 322 319 309 312
325 328 330 331 332 335 336 336 336 336 336 335 333 333 333 332 331 332 332 332 331 330 328 327 327 325 322 319 316 313 307 309
320 324 329 328 329 334 335 336 335 334 333 333 328 325 325 321 328 330 331 330 329 327 324 322 321 320 318 313 309 302 306 308
323 323 326 328 329 328 328 330 327 327 327 324 322 322 320 324 327 327 330 328 326 324 319 316 310 305 304 305 299 299 301 307
318 319 321 327 325 324 324 323 323 323 323 322 322 320 321 321 316 315 314 316 310 309 307 305 303 302 301 299 299 298 298 300
318 319 319 325 324 323 322 321 321 320 321 323 322 317 316 315 315 313 310 309 307 306 304 302 301 301 300 299 298 298 297 298
318 319 325 325 323 322 321 320 320 321 321 322 323 318 314 314 314 310 308 307 305 303 302 300 299 299 298 298 297 297 297 298
324 325 325 323 321 321 320 321 322 324 323 323 323 320 315 314 310 307 307 305 304 302 302 298 297 298 297 297 297 296 296 297
323 325 322 320 319 320 320 322 324 321 321 323 321 319 315 309 307 307 306 303 302 300 300 298 297 297 295 295 296 296 295 296
324 327 320 319 319 321 322 323 322 320 319 317 316 315 312 307 307 307 304 304 301 299 298 296 295 295 294 294 294 295 295 295
322 322 318 319 320 319 319 320 319 318 316 314 313 311 309 308 310 308 305 303 301 300 297 296 295 294 294 294 293 293 293 295
320 320 319 318 317 316 316 316 315 314 313 312 311 310 309 307 307 306 303 301 299 298 297 296 295 294 296 294 292 292 292 292
319 319 317 317 315 314 313 312 315 312 311 311 310 309 309 307 305 303 302 300 299 297 296 295 294 293 292 292 291 292 292 291
320 319 317 318 319 314 314 312 312 313 311 309 309 309 308 306 304 301 300 299 298 296 295 294 293 292 291 289 287 290 291 292
319 319 318 319 318 315 310 311 311 310 308 307 308 309 308 305 303 300 299 298 296 295 295 294 292 293 293 291 286 285 287 290
320 319 318 318 316 316 311 310 309 310 308 306 309 307 306 304 302 299 298 297 296 296 296 294 294 292 292 294 293 291 286 285
318 318 318 318 317 316 312 310 312 308 306 308 307 304 303 302 300 298 297 296 295 295 294 294 296 292 293 292 289 288 287 286
316 317 317 318 317 315 313 312 310 308 307 305 302 300 300 299 298 297 295 295 293 294 294 293 293 292 293 290 289 288 288 285
317 317 317 318 317 317 317 315 311 310 308 304 299 297 295 295 296 295 295 296 296 295 293 293 293 292 291 290 290 290 290 289
318 318 318 319 318 318 318 315 313 310 309 306 302 297 297 297 296 298 298 297 295 295 294 293 292 291 289 290 290 290 291 291

GFSFLT2_sfc_thetae_051.txt.gz
Theta_e
336 335 336 336 337 337 337 338 337 338 338 337 336 335 334 334 334 334 333 332 332 330 329 329 329 326 322 321 320 319 320 322
324 327 327 328 334 335 336 336 336 336 335 334 333 333 333 333 333 333 332 331 331 330 329 326 323 321 318 316 315 317 318 319
323 322 323 327 331 336 336 336 335 334 333 332 328 326 326 326 330 332 331 330 328 326 323 321 320 318 314 312 314 315 316 317
319 321 323 326 330 333 333 333 332 331 330 329 328 328 326 325 328 330 329 327 325 321 317 315 314 310 309 311 309 310 311 313
320 320 321 323 325 329 331 330 330 329 329 328 327 327 328 325 326 324 324 321 315 314 312 310 310 309 309 309 308 308 308 309
319 320 323 326 327 328 328 327 327 327 327 329 326 326 326 322 322 319 318 316 314 311 310 311 309 309 308 308 308 307 307 308
318 318 317 324 327 327 326 326 326 328 328 329 326 324 323 321 320 316 315 314 313 311 310 309 308 307 307 306 306 306 308 309
320 319 322 327 328 326 327 328 328 328 328 330 328 323 322 321 317 316 315 314 313 311 309 308 307 307 306 306 305 306 308 311
320 321 325 328 328 326 327 326 326 327 328 327 328 326 322 321 317 316 315 313 311 310 307 308 306 305 305 305 305 305 306 310
323 325 327 327 327 326 325 327 328 328 328 329 330 328 323 320 317 315 312 309 309 307 308 306 306 306 305 305 304 304 304 305
324 328 328 327 327 326 327 328 329 330 327 326 325 324 322 320 318 313 310 309 309 309 308 308 306 305 304 305 305 303 303 302
326 328 329 327 326 326 326 326 328 328 326 324 322 321 319 318 317 313 311 311 310 309 308 307 306 305 302 303 305 303 303 304
325 327 328 325 324 323 322 322 324 324 321 322 320 318 317 317 316 313 313 311 310 309 307 306 305 305 304 303 303 302 301 302
324 326 327 326 325 324 324 324 323 325 322 319 319 317 316 315 315 313 312 310 308 308 307 305 305 304 303 301 299 299 300 301
323 325 326 327 326 324 321 322 322 319 319 319 317 317 314 314 315 312 311 310 307 307 307 306 303 303 303 299 296 294 297 300
324 325 325 326 325 322 321 321 320 321 319 319 317 316 312 311 312 311 309 308 307 307 306 305 303 301 302 301 302 300 293 292
325 325 325 325 324 324 323 321 323 318 317 316 316 313 311 310 311 309 308 308 308 306 305 303 302 300 299 300 300 299 299 295
325 324 324 325 324 324 321 320 319 317 317 316 314 313 312 311 308 308 308 306 304 300 299 300 299 297 299 299 297 295 294 294
323 323 323 323 323 321 321 321 319 315 316 314 309 309 309 308 307 305 303 300 299 298 301 298 296 299 299 299 299 298 298 296
323 322 323 323 323 322 321 322 320 319 316 314 311 310 308 306 305 300 299 300 302 299 299 298 298 299 300 299 298 298 297 297

GFSFLT2_sfc_thetae_054.txt.gz
Theta_e
335 336 338 337 336 337 336 337 338 337 337 337 336 336 336 335 334 334 333 333 334 332 330 328 326 322 321 320 321 321 321 322
330 329 336 337 336 336 336 336 336 336 336 335 333 334 334 334 333 333 332 331 330 328 328 326 321 319 318 319 320 321 319 319
323 324 321 326 330 333 335 336 334 333 332 331 328 327 328 328 330 331 331 331 328 325 323 320 319 316 315 316 317 315 316 317
322 319 317 324 329 328 332 333 330 328 328 328 326 328 328 328 330 330 329 327 324 321 319 320 320 317 314 316 313 313 312 313
319 320 324 323 324 323 328 333 330 329 330 328 328 327 327 327 327 324 324 323 318 317 318 317 317 316 314 313 312 311 311 311
318 320 322 320 324 323 324 325 328 327 327 329 328 326 326 328 326 326 324 323 321 319 318 317 315 314 313 311 311 310 310 311
317 319 319 323 323 323 327 328 326 326 328 328 328 327 326 326 326 325 323 322 320 318 316 315 314 314 312 311 310 311 311 312
316 317 318 320 322 324 326 328 327 328 328 329 329 328 328 325 325 323 321 320 320 319 318 316 315 314 311 310 309 310 311 314
315 320 323 324 326 326 328 327 326 326 328 333 330 328 329 327 324 320 320 321 320 318 317 316 314 312 310 310 309 309 310 312
321 321 324 326 329 328 326 326 326 327 331 333 332 331 328 327 324 324 323 321 318 312 315 316 314 313 311 311 311 310 309 310
323 324 325 327 331 331 327 329 328 327 331 332 332 334 332 328 325 325 323 314 313 313 316 316 313 312 310 312 312 310 308 306
323 326 328 331 331 331 328 326 328 330 332 331 331 333 333 330 327 325 318 317 313 314 314 315 314 313 307 309 312 309 308 307
326 327 329 331 329 327 326 323 326 329 331 332 329 330 330 330 327 323 319 315 315 315 314 313 311 312 311 311 310 309 307 306
326 327 330 331 330 328 326 324 326 329 331 328 328 327 327 326 325 321 320 317 313 314 315 312 312 312 311 308 306 307 306 306
327 329 331 332 332 330 327 327 327 327 327 327 324 324 324 323 324 321 321 316 311 314 315 313 310 310 309 307 304 302 303 306
327 328 329 332 333 329 326 322 321 325 327 326 324 323 322 323 322 320 317 315 315 315 314 314 311 307 308 306 305 304 300 299
328 328 328 330 332 332 328 324 324 328 328 326 323 322 324 320 318 317 316 317 316 315 313 312 306 301 302 301 303 304 303 299
331 329 328 330 331 332 331 328 327 328 326 325 324 323 322 318 314 314 316 316 315 314 311 303 302 301 301 300 303 301 299 297
332 330 328 330 331 331 331 331 329 328 327 325 323 321 316 314 314 316 315 315 310 303 305 307 302 299 299 303 300 300 300 298
332 330 330 330 331 331 331 330 329 328 327 325 324 318 312 316 313 314 308 305 303 307 305 300 301 298 302 301 300 301 301 299

GFSFLT2_sfc_thetae_057.txt.gz
Theta_e
336 336 338 337 336 336 336 338 338 339 338 338 337 336 336 337 337 337 336 334 332 330 328 326 323 322 321 321 321 323 322 323
332 333 334 334 335 334 335 334 336 336 336 335 334 334 334 333 333 334 335 333 331 327 325 322 321 320 319 320 320 322 319 321
332 331 332 332 335 334 333 335 335 333 333 332 329 328 326 328 331 331 331 330 329 325 322 320 320 318 318 316 320 316 316 318
324 327 327 328 326 328 328 330 331 330 329 331 327 328 328 327 330 330 329 328 326 323 322 321 320 317 315 317 314 314 313 314
318 320 321 324 323 325 326 328 328 327 330 330 331 330 331 328 326 324 323 323 317 317 317 320 320 318 316 315 313 312 311 312
319 322 322 321 320 319 322 325 327 328 328 332 332 329 330 328 324 323 324 322 321 323 321 320 318 317 315 314 313 312 312 312
318 319 319 319 317 319 320 319 321 323 328 330 329 327 329 328 328 326 325 324 323 322 320 318 318 316 314 312 311 312 313 313
317 318 320 320 318 320 321 327 326 326 328 329 333 331 331 328 327 325 325 324 323 322 321 319 317 316 313 311 311 311 312 314
316 317 320 320 319 321 324 327 326 326 326 333 330 330 330 329 326 326 324 324 324 323 320 320 317 315 313 311 311 311 311 312
317 319 320 321 320 322 325 326 326 323 327 329 332 330 330 329 327 325 325 325 322 321 319 319 318 315 314 312 312 310 310 310
319 321 322 323 325 325 327 329 326 326 327 330 333 332 330 328 326 327 328 324 322 318 319 321 317 314 312 312 313 312 310 308
321 323 325 327 328 327 325 325 327 326 326 329 332 332 334 330 328 329 327 323 319 318 318 318 318 314 309 309 313 313 311 310
323 324 327 325 324 323 323 321 324 325 327 331 333 332 333 333 331 329 326 321 320 319 317 317 315 314 312 312 313 314 312 309
322 322 324 325 324 324 324 324 323 326 328 331 333 332 332 331 331 329 326 322 320 318 317 314 315 315 311 311 307 310 308 309
323 325 326 327 328 327 325 325 324 323 325 328 331 329 325 324 325 327 325 324 319 318 316 314 312 313 313 310 305 303 306 310
326 326 327 328 330 327 326 322 320 322 325 327 329 324 323 322 321 323 327 325 320 316 315 316 316 312 312 311 309 305 301 301
328 328 329 330 330 330 327 325 324 325 326 328 328 326 325 323 323 323 325 321 317 315 316 318 315 313 305 302 302 305 306 302
330 328 327 329 330 331 331 329 327 324 325 328 326 326 325 325 324 321 320 317 315 316 320 317 309 306 306 302 299 301 302 301
330 328 327 329 331 331 331 331 331 329 326 329 326 325 324 323 323 316 314 314 316 317 310 306 309 306 301 299 301 301 302 300
330 330 329 329 330 331 331 333 332 332 330 330 329 327 325 323 315 314 313 307 304 305 307 308 304 301 299 302 299 301 303 302

GFSFLT2_sfc_thetae_060.txt.gz
Theta_e
333 334 335 336 336 336 337 338 339 339 338 339 340 340 339 338 337 336 334 333 330 327 326 325 323 323 322 322 323 324 319 320
331 330 330 331 329 331 333 335 336 336 336 335 334 335 336 336 335 334 333 331 329 325 324 324 322 320 318 318 320 321 317 319
330 329 329 328 327 329 330 334 334 333 333 332 330 329 329 329 332 332 332 330 327 324 323 322 319 316 319 318 320 309 313 318
329 328 325 326 322 322 325 329 329 329 327 325 324 325 325 328 329 329 329 328 326 325 323 321 319 309 310 316 309 309 311 318
322 324 324 324 325 325 325 325 326 326 329 327 327 325 324 324 322 321 321 322 314 317 317 314 316 313 312 310 310 308 308 310
320 321 321 322 321 321 322 323 324 325 327 329 327 325 323 321 321 320 318 318 314 317 318 316 314 313 312 309 309 308 308 306
318 319 318 318 318 320 319 320 323 325 326 328 327 326 325 323 322 320 319 321 320 319 316 315 313 312 310 309 308 308 308 310
317 317 316 316 315 317 318 320 320 322 327 327 328 326 328 324 325 323 322 322 321 319 316 315 314 311 309 307 307 308 308 309
316 317 316 316 316 316 317 319 320 322 327 328 327 328 328 325 325 324 323 322 320 319 317 316 313 313 309 308 307 307 307 307
317 319 317 316 316 315 318 319 322 323 326 327 327 329 328 326 323 324 323 322 320 318 315 314 314 311 308 306 306 306 305 305
316 318 317 316 317 318 319 322 323 323 323 326 328 328 328 326 325 323 324 321 319 318 315 317 313 310 308 307 307 306 305 306
318 318 318 318 317 317 320 322 323 324 324 327 329 329 327 326 325 325 325 321 317 315 315 315 315 313 310 307 308 307 306 305
318 318 320 319 318 318 319 320 322 323 323 326 329 329 330 328 326 326 324 321 316 316 315 312 312 311 309 306 307 308 307 305
319 320 320 321 321 322 323 321 322 323 323 325 329 331 329 328 327 326 324 320 317 315 314 311 312 312 307 305 301 304 305 306
320 321 320 322 324 323 322 322 321 320 322 323 328 328 327 327 328 325 323 322 317 316 314 312 309 311 310 305 300 298 299 305
321 321 322 322 323 322 320 319 317 319 321 324 327 328 326 324 323 322 321 320 319 317 315 312 311 308 309 308 303 300 297 297
321 321 322 324 324 325 322 321 320 321 322 323 326 325 324 323 323 321 321 321 320 316 313 312 312 310 307 300 299 301 300 299
324 324 324 325 325 325 327 325 323 321 321 322 324 324 323 323 323 321 321 319 315 313 313 311 310 306 303 301 300 299 299 297
325 325 324 326 327 328 328 327 328 323 323 324 323 323 322 322 322 321 317 315 314 313 311 306 306 303 302 299 300 300 299 299
324 324 324 326 327 327 329 328 327 327 326 326 325 324 323 323 322 317 314 312 309 306 305 306 304 301 297 299 299 299 299 300

GFSFLT2_sfc_thetae_063.txt.gz
Theta_e
331 330 330 331 335 336 337 339 340 341 342 342 341 340 338 337 336 335 334 332 329 326 325 325 325 324 324 323 324 324 317 317
328 329 328 326 326 330 331 334 335 337 338 339 337 336 336 335 334 333 332 330 327 324 325 323 322 320 319 319 322 323 316 316
327 327 326 324 325 327 330 334 333 332 333 332 330 330 330 329 331 331 331 329 327 326 324 321 319 317 319 322 317 316 316 316
327 325 323 323 324 325 327 329 327 326 325 325 325 326 327 328 330 330 329 327 326 325 322 320 316 308 308 312 305 314 316 316
324 324 323 322 321 322 321 322 325 325 323 324 324 325 324 323 322 321 320 321 316 317 315 311 310 308 306 305 305 308 310 315
321 322 320 318 321 320 323 324 323 324 324 324 322 321 319 318 317 316 314 314 311 312 314 310 309 308 306 305 305 304 304 310
318 320 320 320 320 321 322 322 323 324 325 325 323 321 318 319 317 315 315 315 311 313 312 311 308 307 306 305 305 304 304 307
316 316 318 318 318 320 320 320 321 323 324 324 325 323 320 318 317 316 316 316 316 313 312 310 308 306 304 304 305 305 307 307
315 315 317 316 315 316 316 318 318 319 323 324 324 324 322 319 320 318 318 317 316 313 312 311 308 307 305 305 304 305 305 308
316 318 316 315 315 315 316 315 316 316 322 322 322 324 323 321 320 319 320 319 316 314 312 311 309 307 304 303 303 303 303 303
315 316 315 314 314 315 315 314 317 314 320 321 321 323 325 322 320 320 319 317 315 315 313 312 310 308 305 303 302 302 302 304
314 315 314 314 313 313 312 315 316 318 318 320 323 323 325 322 321 320 320 316 315 312 311 311 312 309 308 306 303 303 302 301
314 313 313 314 312 311 311 313 316 317 318 320 324 325 324 323 322 322 320 317 314 312 311 310 310 310 306 305 305 304 302 302
314 313 313 312 313 313 313 315 317 320 319 319 325 326 327 325 324 323 322 318 313 312 311 308 310 311 305 305 302 303 303 303
314 314 314 313 313 314 316 318 317 317 318 318 323 326 326 326 325 324 322 319 316 313 312 310 308 310 308 306 301 299 298 301
315 316 317 316 317 315 315 316 314 315 316 317 322 325 325 324 323 323 322 321 319 316 314 312 310 308 309 308 303 300 297 295
316 316 316 317 318 319 318 316 316 316 316 316 319 323 323 322 321 318 318 317 315 316 314 313 312 310 307 302 301 302 301 297
316 317 316 317 318 319 318 316 316 316 316 316 320 323 324 321 321 320 319 319 317 313 313 312 310 305 304 302 301 299 299 297
316 316 316 317 318 318 319 320 320 318 316 317 320 320 320 319 320 317 317 314 311 312 312 310 307 304 302 301 301 300 300 300
317 316 316 318 319 320 321 323 324 321 320 320 321 321 321 319 320 319 316 311 309 310 307 306 305 302 300 300 299 300 300 300

GFSFLT2_sfc_thetae_066.txt.gz
Theta_e
329 327 327 328 327 337 338 340 341 341 341 340 339 338 337 336 335 334 332 330 328 326 327 327 326 325 328 326 324 323 315 316
329 326 325 325 324 327 328 334 338 338 338 337 336 335 335 334 333 332 331 329 327 326 325 325 324 325 327 325 324 321 314 314
327 325 324 324 325 325 324 327 335 336 335 334 331 330 328 327 330 330 329 328 326 325 324 322 319 322 325 324 321 314 313 314
324 323 323 324 326 325 323 329 329 329 329 328 328 326 325 326 328 328 328 327 325 323 322 320 314 306 309 316 312 314 314 314
322 322 323 323 322 323 325 326 325 325 324 326 326 326 324 323 322 321 319 320 314 313 312 310 307 305 304 306 311 313 314 315
322 322 321 321 323 322 322 324 323 323 324 325 323 321 319 318 317 315 312 310 311 311 310 307 306 305 304 305 306 309 311 314
319 320 319 319 318 319 321 322 323 323 322 323 321 319 316 315 313 312 311 309 311 311 309 307 306 305 304 304 303 306 310 313
319 319 320 321 319 320 321 322 323 323 322 321 319 318 316 314 312 311 311 311 313 311 310 308 305 303 302 303 303 303 305 309
317 318 319 319 319 319 320 321 323 322 322 322 321 319 317 315 312 312 312 314 313 311 310 309 306 305 303 303 303 304 305 306
317 319 318 317 317 316 317 316 317 320 323 323 322 321 319 316 316 315 316 315 313 311 311 309 306 305 302 302 302 302 304 305
315 316 315 316 316 316 315 314 315 315 321 321 321 321 321 318 318 318 317 315 313 312 310 310 307 305 303 302 301 301 301 304
316 315 315 314 314 314 313 315 316 317 317 319 319 319 322 320 319 318 316 315 312 312 310 310 310 308 307 304 301 301 300 300
314 314 313 312 311 312 311 310 313 316 315 317 320 320 323 320 319 319 317 315 314 311 310 309 308 308 305 304 304 303 300 300
312 312 312 312 312 312 311 309 311 314 315 316 319 321 322 322 321 320 318 315 313 311 310 308 308 309 304 304 300 302 303 303
312 312 312 312 312 311 310 311 313 313 315 316 317 321 323 321 320 321 321 319 314 313 312 310 307 310 308 306 300 300 301 303
313 312 312 313 313 311 309 310 310 313 314 315 315 321 322 323 322 321 320 320 316 313 313 311 310 308 309 306 303 302 298 298
313 313 312 313 312 311 310 311 313 316 316 315 315 319 322 323 323 322 322 321 318 316 312 311 311 308 308 303 302 302 302 299
313 312 312 313 312 312 311 312 314 315 314 314 315 318 321 322 322 321 318 318 315 314 313 311 309 309 308 304 303 301 300 299
312 312 312 313 313 314 314 315 316 314 314 314 314 316 319 321 319 318 318 318 316 312 310 310 309 308 306 303 303 303 301 300
312 312 312 314 314 314 316 317 317 317 316 317 316 317 320 322 320 319 318 315 312 310 310 310 307 305 304 303 301 301 302 301

GFSFLT2_sfc_thetae_069.txt.gz
Theta_e
327 326 327 327 328 328 336 334 339 340 340 339 339 337 336 335 334 332 331 329 329 328 329 332 330 329 328 326 324 323 314 315
325 326 324 324 324 327 331 332 338 338 338 337 336 335 334 333 331 330 328 327 328 327 327 328 330 327 326 325 323 321 312 313
325 324 323 324 324 325 324 326 337 336 337 335 331 329 327 324 327 328 327 327 326 325 324 328 327 326 325 324 319 313 313 314
324 323 323 323 325 324 321 324 329 332 331 330 327 324 323 324 327 327 326 325 325 325 321 321 321 318 320 318 312 312 313 314
322 323 323 323 321 322 323 325 327 327 327 326 324 324 324 322 319 317 316 316 312 312 308 306 305 308 309 310 312 312 312 314
321 323 322 322 321 319 321 325 326 325 326 325 323 321 319 317 315 312 310 311 311 308 306 304 303 306 308 309 310 311 311 313
320 321 321 321 320 320 322 322 323 325 325 323 321 318 316 314 311 309 310 310 310 308 305 304 302 302 304 306 309 310 312 313
320 320 320 320 319 319 322 322 322 323 323 321 320 317 315 312 309 309 310 310 310 308 306 304 302 302 301 302 304 308 310 312
318 319 320 319 318 319 321 322 323 322 321 319 318 317 314 311 310 310 310 311 310 308 306 305 302 302 301 302 302 303 306 309
318 320 319 319 318 318 319 319 321 321 320 319 317 317 315 312 311 312 312 312 311 309 307 306 303 302 300 300 301 303 303 304
317 318 318 318 318 317 316 315 318 320 321 319 317 317 317 314 314 313 314 313 311 310 309 307 304 303 301 300 299 300 303 305
316 317 317 316 316 316 314 315 315 317 320 319 320 318 319 317 316 316 315 314 312 311 309 308 306 305 305 302 299 299 299 300
314 315 315 315 315 315 313 311 312 315 316 319 319 320 321 318 318 317 315 314 312 311 309 308 307 307 303 301 301 301 300 298
314 313 313 314 314 314 314 311 312 314 315 316 318 319 319 319 317 317 315 313 313 311 309 307 307 307 305 301 297 300 302 300
311 312 311 311 310 312 311 311 312 312 313 314 314 317 319 319 319 319 317 315 313 311 311 310 308 309 307 306 301 299 301 303
311 311 310 310 310 308 308 309 307 308 308 310 311 316 319 320 319 320 319 318 316 314 314 310 309 307 308 307 306 304 299 299
310 311 311 311 310 309 307 306 308 308 309 310 311 313 317 319 320 318 318 319 318 315 311 311 311 308 308 304 303 302 303 301
310 311 311 312 311 310 308 308 308 309 310 312 313 313 315 318 320 320 319 318 316 316 314 311 310 307 307 304 303 302 301 301
309 310 310 311 311 310 309 309 309 310 311 312 312 313 313 317 320 320 318 318 316 313 311 311 308 308 307 306 305 305 304 303
309 310 310 311 311 311 311 310 310 312 313 314 313 314 315 317 319 320 318 316 316 313 313 310 309 309 305 305 305 305 303 301

GFSFLT2_sfc_thetae_072.txt.gz
Theta_e
324 327 328 329 328 328 333 336 338 339 339 340 339 337 336 336 335 334 333 335 336 334 332 330 330 328 327 326 325 322 315 316
325 326 324 324 325 327 330 335 337 337 337 337 336 335 334 333 331 331 331 333 334 333 331 330 329 327 326 325 324 321 313 314
325 324 323 323 323 324 329 334 335 335 335 335 332 330 327 323 325 328 328 329 331 332 330 328 327 326 325 324 319 313 314 315
324 323 323 321 324 320 328 331 330 331 331 329 328 324 320 324 325 327 327 327 329 330 329 327 323 319 320 319 313 314 314 315
323 322 323 322 320 319 324 326 330 329 327 325 323 322 322 320 318 317 316 318 315 321 318 312 314 313 312 312 312 313 313 316
322 322 322 321 322 318 321 325 327 325 326 323 322 320 317 315 312 309 309 308 306 308 309 307 308 310 311 311 312 312 312 315
321 322 322 320 320 320 321 324 325 326 324 322 320 317 314 313 309 310 309 308 307 305 306 307 307 308 309 311 311 311 313 314
321 321 321 320 318 319 321 323 325 325 323 320 318 316 313 311 309 309 309 309 307 306 304 304 303 304 306 309 310 311 312 314
320 320 321 320 318 319 320 322 324 324 322 319 317 315 313 311 309 309 310 310 309 306 304 301 300 301 302 304 307 310 311 313
319 321 319 319 318 320 321 322 322 321 319 318 316 315 313 311 310 310 312 312 309 307 304 302 301 300 299 301 303 306 308 311
318 319 318 318 318 318 318 320 321 321 319 317 316 315 314 312 312 312 313 312 310 309 307 306 303 302 300 300 301 302 303 305
318 318 318 318 317 315 316 317 320 320 318 316 316 316 315 314 313 314 314 312 311 310 308 308 306 304 304 302 300 301 301 302
316 316 316 316 315 313 314 314 317 318 319 318 317 317 316 315 315 316 315 313 312 310 309 308 308 306 304 302 302 301 300 299
314 315 315 316 316 316 316 313 313 315 317 319 319 319 319 318 317 317 316 314 311 311 310 307 308 306 304 301 299 301 302 301
313 314 315 316 317 315 312 312 313 312 314 314 316 318 319 320 318 317 315 313 312 311 310 309 307 308 308 306 301 298 301 303
313 313 313 312 310 312 311 311 310 312 313 312 314 317 317 318 317 317 316 315 313 312 312 311 311 307 307 308 307 305 302 300
310 310 310 309 309 311 309 309 311 308 309 310 310 312 315 315 317 317 317 317 315 315 313 311 312 309 309 304 304 304 304 303
309 309 309 310 309 308 308 307 306 306 306 307 308 310 311 313 315 316 317 317 316 316 316 313 312 312 308 305 304 304 301 302
310 309 309 310 309 309 308 308 307 307 307 307 307 308 309 311 313 315 316 317 317 316 315 313 310 309 308 307 306 308 307 305
309 309 309 310 310 309 309 308 308 308 308 309 309 310 309 312 313 315 314 315 313 313 311 312 312 312 309 309 308 308 306 305

GFSFLT2_sfc_thetae_075.txt.gz
Theta_e
332 333 335 334 332 332 333 336 338 339 340 339 339 338 338 339 337 336 337 338 337 336 333 331 330 329 328 326 325 326 325 325
329 330 330 329 330 329 332 335 336 337 338 338 336 336 337 335 334 336 338 337 335 333 331 330 329 328 326 325 324 325 324 324
327 326 327 328 329 329 332 336 336 336 337 335 333 334 334 331 330 334 336 334 333 331 330 329 327 326 326 324 324 323 324 324
327 329 327 326 327 328 330 331 335 334 333 331 330 330 328 326 329 331 334 332 331 330 329 327 325 323 323 322 322 323 323 324
325 324 324 324 326 325 328 330 330 330 329 328 325 327 327 325 324 327 331 332 328 326 326 323 323 322 321 322 323 323 323 323
325 324 324 326 323 324 327 325 328 327 326 325 325 323 321 319 319 320 324 329 329 326 323 323 320 320 321 321 322 322 322 322
323 324 323 323 324 323 327 326 324 324 324 323 323 318 316 316 316 316 317 320 322 320 320 320 319 319 320 320 321 321 323 322
323 323 323 322 321 322 325 325 323 324 323 321 320 316 314 313 313 313 314 317 318 318 319 319 318 318 319 320 320 321 322 322
322 324 322 321 320 322 324 325 324 322 322 322 320 316 315 315 315 315 315 314 313 314 317 318 317 316 317 318 319 320 321 322
322 323 321 319 320 323 323 324 325 322 321 320 319 316 317 316 317 316 316 315 313 311 311 312 313 313 314 316 317 319 320 321
320 321 319 319 320 324 323 322 322 320 319 318 318 317 318 318 318 318 318 316 315 312 310 311 309 310 310 311 312 314 317 318
320 319 319 319 321 321 320 320 321 320 318 316 316 316 316 317 316 315 317 316 315 314 313 314 311 309 306 307 310 311 312 312
318 318 318 318 318 318 318 318 319 319 318 317 317 315 317 315 315 316 319 318 317 317 316 315 313 312 309 309 309 309 309 309
317 317 317 318 318 321 320 318 320 320 319 317 317 316 316 316 319 320 319 320 318 317 317 315 316 313 311 311 309 311 310 309
315 316 317 318 318 316 315 316 317 317 317 317 317 317 317 318 320 321 322 322 320 318 317 317 314 314 315 315 306 306 309 308
318 317 317 318 318 316 315 313 312 315 317 317 318 318 319 321 321 321 323 322 322 321 319 319 318 315 315 312 313 315 310 307
316 317 317 317 319 319 315 315 316 318 316 316 318 318 318 320 321 323 323 323 323 322 319 318 320 318 312 309 309 310 311 310
314 316 317 316 317 318 318 315 316 314 314 314 315 317 318 320 321 323 324 325 324 324 323 321 320 315 318 318 316 314 312 310
311 314 314 315 315 317 317 316 316 315 316 317 316 316 316 319 320 322 323 324 324 324 324 321 320 320 320 318 317 317 314 309
310 311 314 315 315 315 317 317 316 316 316 315 316 317 318 319 320 321 322 323 324 324 324 324 323 322 321 318 316 312 313 310

GFSFLT2_sfc_thetae_078.txt.gz
Theta_e
341 344 337 334 333 334 336 337 340 340 339 339 340 340 340 340 339 340 340 339 337 334 333 332 331 330 329 328 327 330 328 327
335 340 337 338 338 329 333 337 335 336 338 338 337 337 338 337 337 339 339 338 336 333 332 331 330 328 327 326 326 328 326 326
330 330 334 335 334 333 331 334 335 335 336 336 334 337 335 335 334 336 337 336 334 332 331 329 328 327 326 325 326 325 326 325
327 329 330 332 331 333 336 337 337 335 336 334 334 333 331 334 336 334 334 332 331 331 329 327 325 325 325 324 325 326 326 326
328 328 330 328 328 330 332 335 334 334 333 330 332 331 333 335 336 335 333 329 326 327 326 324 324 323 323 324 325 326 326 326
330 327 329 328 326 327 330 332 333 333 329 327 325 327 329 332 333 332 330 329 327 326 324 326 325 324 323 324 324 324 325 325
331 331 330 330 330 329 328 328 330 325 325 325 324 322 323 325 330 331 330 330 328 327 327 324 323 323 323 323 323 324 325 325
330 328 328 328 327 328 327 325 324 323 322 320 321 321 321 321 322 323 328 330 329 327 325 322 320 321 322 323 323 324 325 325
326 328 327 325 326 325 325 326 324 320 319 320 320 321 321 319 319 319 321 326 326 326 324 322 319 320 320 321 322 323 324 325
326 328 324 325 325 327 324 324 323 321 318 317 318 319 320 318 317 317 319 320 322 322 322 319 319 318 318 319 321 322 323 324
325 324 322 321 324 324 324 322 321 321 319 317 318 319 319 318 318 319 320 318 317 318 319 318 316 317 317 318 319 320 322 321
325 322 321 321 322 323 322 321 320 320 319 317 317 317 322 322 319 320 319 317 316 316 316 316 316 315 312 314 317 318 319 320
322 319 320 321 321 321 319 318 318 318 319 319 319 318 321 321 321 321 321 318 319 318 317 317 316 316 313 313 314 315 316 315
320 319 319 321 323 324 322 320 320 319 318 318 317 318 318 319 321 322 322 321 318 319 320 319 320 317 314 316 312 313 313 314
318 320 319 320 322 323 321 321 320 317 317 316 318 318 319 318 320 321 320 322 320 321 320 319 317 318 318 317 310 310 313 316
319 320 319 320 321 321 321 319 315 318 316 317 317 318 318 320 321 323 323 323 323 323 322 322 322 318 317 317 321 318 310 313
319 321 320 320 320 322 321 318 319 321 318 317 317 318 320 319 320 321 322 325 325 326 325 323 323 322 321 320 319 313 312 311
320 319 319 322 319 320 320 318 316 317 316 316 316 316 316 319 319 323 323 325 325 327 328 326 325 324 325 322 319 315 317 316
319 320 318 320 321 320 321 320 317 317 318 318 315 316 316 317 318 320 323 325 327 327 327 328 326 325 325 323 323 321 323 321
317 320 321 321 320 321 322 321 320 322 324 323 320 318 318 318 319 320 323 325 326 326 328 327 328 327 326 325 324 325 324 322

GFSFLT2_sfc_thetae_081.txt.gz
Theta_e
347 346 341 336 333 332 336 335 332 338 340 341 340 340 340 340 340 340 339 337 337 336 334 333 332 331 330 328 327 330 327 327
344 342 340 339 336 333 334 335 336 337 338 338 337 337 338 338 337 338 338 337 335 334 333 332 330 329 328 326 327 327 326 326
335 339 338 337 338 334 331 331 336 336 337 336 334 336 334 337 335 336 336 335 333 333 331 329 328 327 327 326 327 326 325 325
331 335 334 334 334 337 337 338 339 338 338 338 335 336 334 335 336 335 334 333 332 331 329 327 325 323 324 325 326 326 325 325
332 329 334 335 333 334 335 339 341 341 339 336 332 333 333 331 335 335 334 330 326 326 325 322 323 321 323 326 326 327 325 324
330 330 331 334 334 333 335 335 337 337 338 332 331 330 329 330 332 332 332 326 325 323 323 327 325 322 324 325 326 325 325 324
331 332 328 329 331 332 330 335 335 337 335 334 330 327 329 328 329 332 329 327 326 324 325 324 324 323 324 324 324 325 325 324
331 330 330 330 331 332 331 331 333 333 329 331 328 327 326 325 327 328 329 329 327 326 325 323 323 323 323 324 324 325 325 325
329 331 328 329 327 327 326 326 324 321 322 324 322 323 325 328 326 327 330 330 330 328 326 323 321 321 322 323 324 325 325 325
328 329 329 328 327 325 324 322 320 320 319 319 320 319 322 321 324 327 330 329 327 325 322 320 319 320 320 321 322 324 325 325
327 329 328 328 327 325 323 321 319 319 318 317 318 319 319 319 321 323 326 324 324 324 323 322 319 319 318 320 322 322 323 323
326 327 325 325 323 324 321 320 320 319 318 316 317 317 319 319 318 320 320 319 320 321 322 322 320 318 316 317 320 320 322 322
324 324 322 322 321 320 318 316 317 316 315 315 316 318 319 318 319 320 320 317 319 322 321 320 318 320 314 314 316 318 319 320
323 323 322 322 322 321 319 318 317 316 315 313 315 317 317 321 322 322 320 318 321 321 320 319 318 320 314 314 310 313 315 317
322 322 322 323 323 322 319 317 317 315 315 312 315 318 321 323 324 322 321 324 322 325 324 323 319 319 321 318 314 312 316 317
321 321 321 322 323 321 317 314 312 315 314 315 316 320 321 322 323 323 324 324 324 324 324 324 322 318 316 316 321 320 313 309
322 321 320 322 322 321 321 317 316 317 317 315 315 316 318 319 321 322 321 322 326 325 324 323 323 323 320 319 320 319 320 314
323 322 321 321 323 322 322 319 317 316 314 314 315 315 317 319 321 319 320 321 324 326 326 324 324 324 324 324 320 317 316 314
322 323 320 322 321 321 322 323 320 317 315 314 314 314 314 316 317 320 320 321 325 327 326 326 326 324 323 323 322 321 321 321
322 322 322 321 321 321 323 324 323 322 319 316 316 315 314 315 316 316 318 320 322 327 326 326 329 327 326 325 323 325 324 323

GFSFLT2_sfc_thetae_084.txt.gz
Theta_e
343 346 340 335 334 334 335 335 332 331 329 329 342 341 341 341 340 341 340 339 337 336 335 334 333 331 329 327 327 332 323 323
341 342 341 338 334 333 336 334 333 333 331 335 337 338 338 337 338 338 338 337 336 334 333 332 331 329 327 326 326 328 321 322
338 337 338 337 336 334 333 336 336 335 332 333 334 336 335 335 336 336 336 335 334 333 332 330 328 327 326 326 328 322 321 321
334 337 334 336 336 333 334 334 336 335 330 334 335 334 333 333 334 334 334 333 332 331 330 328 325 320 320 324 320 322 321 320
331 332 334 332 331 335 336 335 336 336 334 333 333 333 333 331 331 332 330 331 327 326 325 321 318 318 320 320 321 323 321 321
330 331 333 335 334 332 334 334 334 334 334 333 332 330 330 329 329 330 327 325 323 321 320 319 318 318 320 323 321 322 321 321
330 331 331 331 332 333 332 333 333 333 333 332 331 329 328 330 330 328 325 321 320 318 318 318 318 317 320 320 321 322 320 320
332 331 331 330 330 331 331 331 333 333 333 333 332 330 326 328 327 327 322 321 319 318 320 319 318 318 319 320 321 321 320 320
331 330 329 328 330 329 329 329 330 331 332 332 329 329 327 326 325 324 323 322 319 322 321 320 318 318 318 319 320 321 321 320
330 329 327 327 327 327 323 321 321 322 323 330 327 327 326 324 323 323 326 326 323 322 319 317 317 317 316 317 319 321 321 320
328 328 327 326 326 324 320 319 319 319 319 320 324 322 323 322 323 323 324 322 322 320 319 316 315 316 316 317 318 319 319 320
328 327 326 327 325 322 319 318 318 317 317 317 318 319 320 319 319 320 320 319 319 318 316 316 315 315 315 316 317 318 318 317
325 324 325 324 322 318 317 315 316 315 316 316 316 316 318 318 318 318 319 317 317 317 315 314 312 315 313 313 314 316 316 317
324 323 323 322 322 320 318 316 316 315 315 315 315 315 316 316 317 316 316 315 316 316 315 313 313 316 310 309 306 309 312 315
323 322 322 322 322 320 318 317 315 313 312 313 314 316 316 315 316 315 316 315 315 316 315 314 312 314 315 313 308 306 307 312
322 321 321 321 322 318 316 312 310 311 310 312 312 315 316 315 315 316 317 317 316 315 318 316 317 312 314 316 315 315 309 306
322 320 321 322 322 318 316 313 312 312 311 309 311 315 318 319 318 319 317 321 320 320 319 318 319 317 313 314 313 316 316 311
320 319 320 321 321 318 316 314 313 312 310 309 311 314 316 317 320 320 320 320 321 320 320 319 318 318 319 318 315 313 313 310
320 319 318 320 321 320 318 316 314 313 312 311 311 312 313 315 318 319 319 319 321 321 320 320 320 318 317 317 319 317 317 315
320 319 319 319 320 320 321 318 317 315 315 314 312 312 312 315 317 317 317 319 319 320 319 319 319 319 318 318 318 318 318 317

GFSFLT2_sfc_thetae_087.txt.gz
Theta_e
340 339 338 338 336 335 335 335 335 334 332 329 330 331 340 342 342 341 341 339 338 337 336 335 334 332 329 327 329 327 321 321
338 337 333 328 330 334 334 334 333 332 333 331 330 330 337 339 339 339 339 338 337 336 334 333 331 329 327 328 327 326 321 320
334 336 333 330 329 333 335 335 333 333 333 331 329 334 336 336 336 337 337 336 335 334 333 330 328 327 326 327 325 321 321 321
332 334 332 330 333 330 329 332 333 331 328 332 330 334 334 335 334 335 335 334 333 332 330 328 324 318 319 323 320 320 320 320
330 331 332 332 331 328 329 330 330 330 328 332 332 332 333 332 332 331 330 331 327 326 325 319 317 317 318 317 320 319 320 320
326 329 328 330 330 330 329 329 330 332 328 332 331 331 329 330 329 328 327 326 322 320 317 315 315 317 318 318 319 319 319 320
325 326 327 330 327 326 326 327 328 330 331 332 331 330 328 327 329 327 325 322 320 317 315 314 314 316 317 319 319 319 319 320
324 326 325 325 324 324 324 327 328 328 330 330 329 329 328 327 328 325 322 321 318 316 315 315 314 315 316 319 319 319 319 319
325 325 326 325 325 325 325 324 326 327 329 330 329 329 327 327 327 323 320 319 316 316 315 316 314 317 316 318 319 318 319 318
326 327 323 326 325 322 320 320 319 324 327 331 329 329 327 327 325 323 320 319 315 317 318 316 314 314 314 316 319 318 318 317
324 323 321 323 324 321 320 320 319 321 322 328 328 329 326 326 325 323 321 320 317 318 315 315 314 314 314 314 316 318 317 318
323 322 321 323 322 319 319 318 317 318 318 323 326 327 326 326 323 322 322 321 318 317 314 314 315 315 316 315 314 317 318 316
322 320 319 322 319 316 316 314 315 315 316 319 323 322 322 321 320 319 319 319 316 315 314 313 312 313 312 311 313 315 315 316
320 320 319 321 320 318 318 315 315 315 315 316 319 320 320 320 319 318 318 316 315 312 311 311 310 312 311 309 305 307 311 314
319 318 319 321 321 319 317 315 313 312 312 313 316 319 320 319 318 318 316 315 313 311 311 311 310 311 311 308 304 302 306 309
319 319 319 320 321 317 314 312 310 311 312 313 313 316 317 317 316 316 316 316 313 313 313 312 312 309 312 315 314 312 304 303
318 319 320 320 320 318 315 312 313 311 311 311 313 313 313 314 315 314 314 315 315 314 314 314 314 312 309 310 310 313 313 307
317 317 319 320 319 317 315 313 311 309 309 309 311 312 313 313 313 313 315 316 316 315 315 315 316 315 314 314 311 310 310 311
316 316 318 320 319 317 316 314 312 310 308 309 310 311 311 312 314 313 315 317 318 318 317 317 316 317 316 315 316 315 315 313
316 316 317 319 319 317 317 315 313 312 310 309 310 311 312 312 315 317 316 317 318 318 318 317 318 317 316 316 316 316 317 315

GFSFLT2_sfc_thetae_090.txt.gz
Theta_e
340 341 340 341 341 341 338 338 335 335 335 333 333 332 330 335 340 341 341 340 340 339 338 337 334 332 331 330 328 327 322 324
333 336 335 331 331 336 335 335 335 334 335 332 331 331 329 326 337 339 340 339 338 337 335 334 332 330 329 327 327 326 321 322
332 330 331 329 329 332 334 334 334 333 333 331 329 328 328 328 336 337 338 337 336 335 333 331 329 329 328 327 325 320 321 320
329 331 331 329 330 328 329 331 330 329 330 329 327 327 328 331 335 335 336 335 334 333 331 329 324 323 323 324 320 320 320 319
327 329 332 331 328 326 325 327 330 328 329 330 330 330 333 332 332 332 331 331 328 327 326 319 316 317 317 319 319 319 319 319
324 329 330 331 331 326 325 326 330 327 329 329 330 331 330 330 330 330 328 325 321 318 318 315 314 316 318 318 319 319 318 319
323 325 328 327 330 329 327 326 329 328 329 329 331 330 328 329 328 328 326 324 320 316 314 314 313 315 318 318 318 318 318 319
323 324 324 326 323 324 324 324 327 329 328 330 331 330 329 328 327 326 324 323 320 317 313 311 311 314 316 318 318 318 318 318
323 323 323 323 323 322 321 322 326 329 330 330 330 329 328 328 326 323 322 320 318 316 312 311 311 314 317 318 318 318 318 318
324 325 322 321 322 324 323 320 321 327 330 330 329 328 327 328 326 321 320 318 316 315 313 312 310 313 315 317 317 317 317 317
323 323 321 320 321 321 320 320 318 321 326 329 328 328 327 327 325 321 318 316 314 315 312 313 312 312 315 316 316 316 317 317
324 322 320 321 320 319 319 318 318 318 317 325 329 328 327 326 326 321 318 314 314 316 314 313 313 313 316 315 316 316 315 316
322 319 320 320 317 317 316 314 315 316 316 320 326 327 326 325 323 321 319 313 315 316 315 314 313 312 312 311 313 315 315 315
320 319 320 319 317 318 317 315 315 315 316 318 324 324 326 325 323 321 320 315 316 315 314 311 312 313 311 309 307 308 310 314
319 319 319 319 318 318 316 314 314 312 313 315 320 323 322 323 322 320 319 317 315 314 314 313 312 310 312 308 302 302 305 308
319 318 317 319 318 316 313 312 311 312 312 313 317 320 321 321 320 319 318 316 314 313 314 313 313 310 309 313 311 308 305 302
318 317 317 318 318 317 314 312 313 313 312 312 313 316 318 319 319 318 317 317 315 313 312 312 313 310 309 309 309 311 309 304
316 316 316 318 318 317 314 313 311 310 310 311 312 312 313 315 316 317 317 316 315 314 314 313 313 312 311 312 311 310 310 309
316 315 315 317 317 316 315 314 311 310 310 311 311 311 311 311 314 313 315 316 316 315 315 313 314 314 312 312 312 312 314 312
316 315 315 317 317 316 316 315 311 310 311 311 312 312 313 313 312 311 312 315 316 315 314 315 313 315 315 315 315 315 314 314

GFSFLT2_sfc_thetae_093.txt.gz
Theta_e
336 338 340 343 342 343 341 340 339 338 336 337 339 337 336 337 338 340 340 340 339 339 338 337 336 334 332 330 329 329 325 327
333 335 335 335 334 339 338 336 334 335 335 334 335 336 337 337 337 337 339 339 339 338 337 334 332 332 330 328 328 327 324 324
329 329 329 330 332 337 336 335 335 335 335 333 331 329 328 331 334 335 336 337 337 337 335 331 331 330 328 327 326 321 322 322
332 327 325 326 332 332 329 332 332 330 329 329 328 328 327 329 331 333 336 335 334 334 331 330 329 325 324 324 319 320 320 320
327 327 325 325 326 327 328 327 325 325 326 328 326 326 327 328 330 332 333 334 331 329 324 322 322 321 318 317 318 319 318 319
324 326 327 326 329 324 324 325 328 326 326 327 329 326 326 329 330 331 329 328 326 325 318 319 317 318 318 318 318 318 317 319
323 325 325 327 329 326 323 324 328 328 326 327 330 328 326 329 329 328 327 325 323 319 315 316 316 317 317 316 316 316 317 319
322 323 323 324 324 328 327 326 329 327 326 328 330 329 328 328 328 327 325 323 322 320 315 313 314 316 315 316 316 317 318 318
322 323 322 323 322 322 325 326 329 328 326 327 329 329 328 328 327 326 324 323 320 316 312 312 313 315 315 316 316 317 317 317
322 325 322 322 321 320 322 322 327 328 328 329 329 329 329 328 326 324 322 320 317 315 312 311 311 314 314 315 316 317 317 316
321 322 321 320 319 319 319 321 322 325 328 329 329 329 328 328 325 323 320 318 317 315 310 311 311 313 314 314 314 316 316 317
322 322 321 320 320 318 316 316 319 319 321 326 328 328 327 328 325 320 318 316 313 314 312 311 311 314 315 314 314 313 316 316
322 320 321 321 318 315 315 315 315 315 315 316 324 328 326 327 324 319 318 313 314 315 312 312 311 313 313 311 312 311 312 314
322 321 320 319 319 317 316 315 315 315 316 316 318 326 327 326 325 320 317 313 313 315 312 310 310 315 311 310 307 309 312 313
321 320 320 319 316 314 313 313 313 313 313 316 318 324 325 325 324 321 318 313 314 315 313 312 310 309 315 310 304 305 306 308
320 321 319 318 315 313 313 311 309 312 313 314 318 322 324 324 323 321 318 314 315 315 315 314 313 310 309 311 310 309 305 301
320 319 318 317 315 314 312 311 311 311 312 313 316 318 321 322 322 321 319 315 315 315 313 314 314 312 312 310 309 309 308 304
318 317 316 316 314 313 313 312 312 310 311 311 313 314 316 319 320 319 317 315 314 314 312 314 313 313 312 310 310 308 308 307
317 316 315 316 314 313 314 313 312 308 311 312 311 311 313 315 318 316 315 314 316 315 314 313 313 313 312 312 312 312 313 311
316 315 315 316 315 313 315 314 311 310 311 313 313 313 314 313 315 317 316 317 316 315 314 314 314 312 311 312 313 313 314 313

GFSFLT2_sfc_thetae_096.txt.gz
Theta_e
335 337 342 343 342 342 341 342 342 342 341 342 340 339 338 339 339 338 338 340 340 341 339 338 337 335 333 332 330 330 326 327
332 334 335 337 338 339 340 339 338 337 338 338 335 334 335 334 334 336 338 339 339 340 338 336 334 333 331 330 329 329 325 326
330 330 330 330 332 338 338 337 335 335 335 335 332 331 331 332 332 334 338 337 337 338 336 334 332 330 329 329 326 322 322 324
331 327 326 327 331 335 335 334 334 333 332 332 331 329 327 332 333 335 336 336 336 335 332 332 329 326 326 324 319 320 320 322
331 326 324 325 327 331 332 333 331 330 330 330 329 328 328 326 328 331 332 334 333 331 328 327 324 323 318 317 318 318 319 322
328 328 324 323 323 326 329 329 327 326 326 326 326 326 326 326 327 328 330 332 330 324 323 322 321 319 318 317 317 317 317 320
323 328 328 325 323 323 325 326 327 326 324 325 327 325 325 326 326 328 328 331 328 320 319 319 318 317 317 317 317 317 318 320
321 327 328 328 326 323 322 324 327 327 326 327 327 328 327 326 327 327 326 327 325 319 317 317 317 317 316 317 316 317 318 318
320 322 323 324 322 323 325 326 327 327 326 327 329 328 326 326 326 325 325 324 323 318 316 315 315 316 315 316 317 316 317 318
321 325 323 322 320 320 321 326 329 328 327 326 329 327 327 327 326 325 324 321 319 315 314 314 314 314 313 314 315 317 317 317
320 323 323 320 319 318 318 320 326 328 327 327 328 329 326 326 326 324 322 320 317 315 311 314 313 313 313 313 314 315 316 317
321 323 321 318 319 318 317 318 318 322 327 328 328 329 328 327 326 322 322 318 316 315 311 313 314 314 315 312 313 313 314 315
320 321 321 322 320 319 317 317 317 315 315 322 327 328 327 327 325 320 320 318 316 314 312 311 313 315 312 311 311 312 313 314
320 322 322 322 321 320 317 317 316 312 313 317 318 323 327 327 324 320 318 316 315 312 312 311 312 315 311 310 307 309 312 313
321 321 321 322 320 317 315 314 313 312 313 312 313 317 324 327 323 321 318 316 314 313 313 313 311 313 315 310 306 304 307 310
321 321 321 320 318 315 313 312 309 310 310 312 317 316 322 324 324 321 319 316 315 315 313 313 313 311 314 312 311 310 306 302
322 321 320 319 316 314 312 308 312 313 309 314 316 318 319 324 323 321 318 315 316 316 313 313 314 313 313 309 309 309 308 305
320 319 319 318 316 312 311 309 310 310 311 312 315 317 320 322 322 321 319 315 314 315 314 314 314 313 313 312 310 308 307 306
319 318 317 316 315 312 310 310 310 311 311 313 312 313 315 318 320 319 318 316 316 315 314 314 313 313 313 312 313 312 312 311
318 316 316 316 315 312 311 310 310 312 309 313 313 314 315 317 318 317 316 315 316 315 314 314 314 313 313 312 312 313 314 313

GFSFLT2_sfc_thetae_099.txt.gz
Theta_e
347 349 346 343 342 342 342 342 344 343 342 342 342 341 340 340 341 342 341 340 341 340 340 338 338 337 335 333 331 333 335 334
344 348 349 349 349 340 340 341 341 341 340 339 338 338 338 339 340 339 339 339 340 339 338 336 336 334 333 331 330 332 334 334
343 344 345 348 349 346 341 341 339 338 339 338 336 340 339 340 336 336 338 338 338 338 337 334 332 332 331 330 330 334 334 332
341 342 342 343 343 342 342 340 337 337 340 340 342 339 339 336 334 333 335 336 337 337 334 332 332 333 333 329 333 333 332 332
337 337 340 340 337 337 337 337 335 334 336 336 334 332 333 334 336 336 338 335 335 334 332 335 335 334 332 331 331 331 331 331
333 334 337 338 338 333 334 335 336 333 332 332 331 331 331 331 334 335 335 335 331 330 332 335 333 331 330 329 330 330 330 330
334 332 335 336 336 336 336 335 333 332 330 331 331 332 332 334 332 331 331 332 328 326 325 326 328 329 329 328 327 328 329 329
334 331 332 334 334 335 334 335 333 330 330 330 332 330 329 328 330 328 330 331 327 324 324 326 327 328 327 327 327 327 328 328
330 330 331 330 330 333 333 333 332 329 329 331 331 331 331 329 327 326 328 329 323 322 322 322 326 326 325 325 326 326 326 326
328 331 328 328 328 332 332 330 330 331 331 333 331 333 332 330 326 327 326 324 320 320 319 318 321 323 323 324 324 324 325 324
327 330 327 328 332 332 332 329 328 329 331 330 331 330 333 330 329 326 324 321 319 318 318 318 318 321 322 322 323 323 324 323
328 329 328 327 330 330 330 328 327 329 330 329 330 331 331 330 327 325 323 320 316 317 316 318 318 321 320 320 322 323 323 323
327 327 325 324 325 323 323 323 325 325 326 329 329 330 328 328 325 324 324 320 317 316 316 316 318 321 318 316 318 321 321 322
326 327 324 326 326 325 325 323 322 324 324 323 327 331 329 327 324 323 322 321 318 316 316 316 318 319 316 315 309 312 317 320
325 327 325 327 326 324 320 318 317 317 319 322 321 323 326 328 325 324 322 320 318 317 317 318 315 319 320 317 309 308 312 317
326 327 325 325 324 321 320 319 316 316 320 320 323 323 326 325 325 323 321 320 317 316 317 318 318 316 317 316 321 318 312 310
326 326 325 324 322 322 319 317 318 320 320 320 322 323 324 326 325 323 320 319 318 316 315 318 318 317 314 314 313 317 318 314
325 324 323 322 320 320 317 317 319 317 316 318 319 320 321 324 325 324 320 320 319 317 317 315 316 317 317 314 313 313 312 312
324 323 320 320 320 317 317 320 319 316 317 318 317 317 318 322 323 323 320 322 320 318 315 314 316 317 315 314 315 316 317 316
322 321 320 319 319 316 319 320 319 319 318 318 318 316 317 321 324 321 320 319 319 317 316 315 315 316 315 315 314 316 318 317

GFSFLT2_sfc_thetae_102.txt.gz
Theta_e
354 352 349 343 342 343 343 344 344 345 345 343 342 342 341 341 341 341 339 341 342 343 341 339 338 337 335 333 333 334 338 336
352 353 352 353 352 341 341 341 342 342 342 340 338 339 340 340 340 340 342 341 340 340 339 338 337 335 332 332 332 333 337 336
351 351 350 349 350 347 342 342 341 340 342 339 337 345 344 342 338 339 340 339 339 339 337 335 333 332 331 331 331 336 335 334
348 349 349 349 346 349 351 350 348 346 346 346 344 344 343 339 338 336 338 337 337 335 334 333 333 337 335 331 336 335 335 332
346 348 349 348 346 344 345 346 345 346 343 346 346 344 342 340 340 338 339 336 340 335 332 333 333 339 337 337 336 336 333 331
344 346 347 348 345 344 343 339 341 342 342 340 340 340 338 338 337 335 336 336 337 334 331 331 336 338 337 335 335 333 332 330
343 344 346 345 344 342 340 338 338 340 339 337 338 338 336 333 334 336 338 340 334 332 332 331 337 336 335 334 333 332 332 330
344 342 344 344 342 343 341 341 339 337 337 336 336 337 336 335 335 335 337 339 336 331 330 330 336 336 333 333 332 332 331 331
341 342 342 342 342 342 340 338 341 337 335 335 337 335 336 334 333 333 337 336 328 327 326 327 328 333 331 331 331 331 329 328
340 339 340 338 341 340 338 337 338 338 336 334 335 336 336 335 334 332 333 331 327 324 324 324 326 330 329 330 330 329 329 328
337 340 338 335 336 339 339 336 334 336 336 335 335 337 336 335 332 330 330 324 324 323 322 322 324 328 327 327 328 327 327 326
336 337 338 333 333 338 337 333 332 333 332 335 337 334 335 335 333 326 323 320 319 321 320 321 322 327 325 325 326 326 326 326
334 335 337 331 331 331 330 327 328 333 332 333 334 335 333 332 330 325 322 320 319 319 318 318 319 323 321 320 322 324 324 324
332 333 336 334 335 334 333 330 329 330 330 333 335 334 333 331 328 327 323 321 319 318 318 317 318 322 318 317 311 315 320 322
329 332 335 334 335 334 332 331 328 328 328 326 331 334 332 329 328 325 323 321 320 320 320 320 317 319 323 318 311 310 314 320
329 331 334 334 335 332 329 326 324 327 327 325 326 331 330 329 327 326 324 321 319 321 322 320 321 317 322 322 323 320 312 312
329 330 332 333 334 332 329 329 329 329 327 325 326 329 331 329 326 327 325 322 321 319 322 322 321 320 320 322 322 321 321 316
329 329 331 332 331 331 330 329 328 326 325 325 325 324 327 327 329 325 323 323 321 319 318 321 321 323 325 325 320 318 318 316
328 329 329 329 327 329 330 328 329 327 325 325 324 321 323 325 327 327 323 322 322 318 317 317 319 318 322 321 320 317 316 317
328 328 327 325 324 327 329 328 329 327 325 325 325 323 323 324 325 326 325 323 320 319 317 317 318 318 320 318 317 320 317 316

GFSFLT2_sfc_thetae_105.txt.gz
Theta_e
355 352 349 344 344 344 344 345 345 345 347 346 345 344 343 343 342 342 342 342 344 343 342 340 339 338 337 333 333 334 337 336
353 353 351 351 350 342 341 342 343 343 343 342 341 341 341 341 340 340 340 339 342 342 340 338 336 335 334 332 331 334 337 332
352 351 351 351 348 347 342 342 342 341 343 339 339 347 346 343 340 339 340 340 340 340 338 335 333 333 332 331 332 335 336 331
348 349 349 349 346 350 349 347 348 347 346 346 347 344 345 343 340 338 339 338 338 337 335 334 333 333 333 331 333 336 335 331
345 348 350 349 348 348 348 349 349 348 348 348 347 346 347 344 345 339 340 338 339 336 334 335 331 331 333 334 337 336 332 333
344 347 348 350 346 347 345 346 348 346 346 347 346 345 346 344 343 341 341 341 339 340 337 333 330 331 333 336 335 333 330 331
343 345 348 347 347 345 344 344 344 345 345 344 345 343 342 343 341 340 339 341 339 337 335 329 329 329 332 335 334 334 331 331
344 345 347 347 345 345 343 343 340 343 343 342 344 344 342 340 338 337 336 340 338 338 334 330 329 328 333 336 331 331 331 333
343 345 346 346 344 344 343 342 340 339 338 342 341 342 341 339 336 335 336 340 338 336 334 329 329 332 333 333 329 330 329 330
340 343 345 344 344 343 342 340 340 339 338 340 340 340 340 339 337 337 338 337 334 332 329 326 327 328 328 330 328 328 328 330
335 343 344 343 343 343 343 342 339 337 337 338 339 339 339 338 336 336 338 335 330 328 326 326 325 325 327 329 326 326 327 324
333 340 344 343 341 342 341 339 337 337 337 336 337 338 339 337 336 335 335 331 328 325 324 325 325 325 326 325 326 328 326 326
332 338 342 340 335 336 337 335 331 333 333 336 338 337 337 336 335 329 327 323 322 322 322 322 322 324 322 321 326 326 324 324
331 334 338 340 336 336 337 335 331 334 334 335 335 335 336 335 333 328 324 320 320 320 320 320 320 324 318 319 313 316 322 323
326 332 335 339 337 337 337 336 332 330 331 332 333 334 335 335 333 328 324 322 319 319 320 320 317 320 321 319 311 310 316 322
325 330 333 337 337 336 335 331 328 330 331 330 332 334 333 334 332 327 325 321 319 320 322 321 319 317 320 322 320 318 313 312
328 328 331 335 337 337 336 332 332 332 331 330 329 332 332 332 330 330 325 324 322 322 323 323 322 319 319 319 320 320 321 316
327 327 329 334 336 338 337 333 332 330 330 328 326 329 329 331 330 327 326 325 323 322 323 323 323 322 320 321 319 317 317 316
326 326 327 332 335 336 335 333 333 332 329 327 327 325 326 330 331 329 325 324 325 322 322 321 322 320 321 321 323 322 323 321
322 324 327 329 333 334 335 334 333 331 330 328 327 326 325 327 327 329 328 326 323 321 321 320 321 321 321 321 321 322 320 319

GFSFLT2_sfc_thetae_108.txt.gz
Theta_e
349 347 346 345 344 344 345 345 346 346 346 347 347 344 345 346 345 345 345 344 344 344 343 341 339 339 337 335 335 333 333 336
349 349 347 346 346 342 342 343 343 344 345 344 341 342 342 342 342 342 342 342 342 341 339 338 337 335 334 332 331 331 332 334
352 349 347 348 346 344 342 343 342 342 344 340 338 344 341 341 339 339 339 338 340 340 338 336 334 334 333 332 331 331 330 330
349 349 348 348 344 346 345 345 344 344 345 344 345 344 343 341 339 338 338 338 339 338 335 334 333 333 332 332 331 332 330 330
345 349 349 348 343 347 345 344 344 344 344 345 344 342 342 340 340 336 337 338 337 334 332 332 330 331 331 331 331 332 330 330
343 346 349 347 345 347 346 344 345 345 345 344 342 340 339 339 338 338 336 336 334 332 331 331 329 329 328 330 331 331 328 329
341 345 346 348 348 345 344 344 344 344 344 344 342 340 338 338 337 338 336 337 334 332 331 329 328 328 329 330 329 330 329 328
341 343 346 347 344 346 343 343 343 342 341 341 342 341 338 337 336 335 335 336 335 333 331 329 327 328 327 329 330 330 328 329
341 342 347 345 344 345 342 341 340 338 339 339 340 341 338 336 335 334 334 335 334 332 331 330 327 328 326 327 329 328 329 328
342 342 344 345 343 343 341 342 339 337 338 339 337 339 339 336 335 333 333 333 331 331 330 328 327 326 324 326 328 327 328 326
341 342 343 343 344 342 342 342 339 338 336 336 336 337 337 336 334 333 333 332 331 330 329 328 325 325 326 326 327 325 326 326
339 342 342 342 342 341 340 339 337 337 335 336 336 335 336 336 334 333 332 331 329 328 326 327 325 325 327 326 325 323 323 324
332 340 342 341 339 337 337 335 335 334 334 335 334 335 336 335 333 331 330 328 328 325 325 324 323 325 323 321 320 322 321 323
329 338 341 340 339 338 337 336 334 333 332 332 334 335 335 334 331 328 325 323 323 323 323 321 321 324 319 317 311 314 319 320
324 330 340 339 338 336 335 334 331 329 331 330 332 333 332 333 330 326 323 322 320 321 321 320 317 322 321 316 310 309 313 318
323 326 334 338 337 333 332 330 326 327 329 329 330 331 331 332 330 326 322 321 320 320 321 320 320 317 319 321 319 316 310 309
326 324 329 335 336 333 332 332 330 328 330 328 328 331 330 332 330 326 322 321 320 320 320 320 321 319 317 316 316 316 315 312
322 325 326 331 336 334 333 332 330 328 328 326 327 327 329 330 329 326 323 321 320 320 321 321 320 320 319 318 316 312 312 311
321 321 322 327 334 334 334 334 332 329 328 327 325 325 325 327 328 327 325 322 321 322 322 322 321 320 319 318 319 317 317 316
317 319 320 326 332 334 333 335 332 331 330 327 325 324 325 326 328 327 325 324 322 322 321 321 321 320 319 318 319 318 319 318

GFSFLT2_sfc_thetae_111.txt.gz
Theta_e
341 342 344 343 344 344 344 345 345 345 346 347 347 345 344 345 346 346 345 345 345 344 343 341 341 340 338 335 333 333 331 334
340 340 340 339 339 341 342 343 342 342 343 343 342 342 343 343 343 344 344 343 343 343 340 339 339 337 335 333 332 332 329 332
341 340 340 339 338 341 341 342 342 341 342 341 337 340 340 341 339 340 340 341 341 340 339 336 335 334 334 333 332 331 330 333
342 340 340 339 342 338 337 339 338 338 340 338 338 338 337 339 337 337 338 337 338 338 336 334 332 330 331 332 331 331 330 331
343 342 342 341 340 338 338 338 337 337 338 337 337 339 338 336 334 335 333 335 335 335 333 329 328 328 330 331 331 332 330 331
343 343 342 341 339 339 339 339 338 338 337 337 338 334 334 334 333 331 332 333 331 330 328 327 326 327 329 330 330 331 330 330
341 342 342 340 338 342 339 338 339 339 338 337 336 334 332 332 332 332 331 331 331 328 327 326 324 325 326 327 328 329 329 329
339 341 342 341 339 341 339 337 340 337 337 338 336 334 332 331 330 331 330 331 330 329 328 325 323 324 325 328 329 330 329 328
337 339 343 341 340 340 338 337 337 334 334 335 337 335 333 331 330 329 330 331 328 328 326 324 324 325 326 327 328 329 329 328
337 340 340 341 339 338 338 336 333 332 332 332 337 338 334 330 330 329 329 329 330 328 327 326 324 325 325 325 326 329 329 328
335 338 339 339 338 338 336 334 333 332 332 332 333 337 334 332 330 330 332 328 326 326 326 327 324 325 325 324 325 327 327 328
335 337 340 339 338 337 335 333 333 333 332 332 332 334 333 331 330 328 329 328 328 326 326 325 326 325 325 324 324 326 326 325
335 335 337 338 337 335 334 331 331 332 331 332 332 331 332 330 329 328 328 327 328 328 326 325 323 324 323 322 323 323 323 324
335 336 337 337 337 336 333 329 327 327 328 330 332 331 331 330 328 326 328 326 325 325 324 322 323 325 320 319 312 315 319 322
333 336 338 337 336 332 330 329 328 325 324 324 328 330 330 331 327 325 325 324 323 324 323 321 319 323 323 316 309 308 314 317
319 337 337 336 335 333 331 328 326 326 324 324 326 327 328 328 325 323 321 320 320 321 323 322 321 319 320 320 318 316 310 309
319 318 336 336 335 333 330 327 326 324 324 323 325 326 326 328 324 321 320 319 320 320 320 321 321 319 318 316 315 316 315 312
315 318 319 334 333 331 330 328 326 324 324 324 324 326 326 327 325 322 321 319 319 319 320 320 320 320 318 317 316 313 311 311
310 313 315 319 331 329 329 328 327 324 324 324 323 322 325 325 324 322 321 321 320 319 319 320 320 319 318 317 316 316 315 313
305 306 309 313 330 330 329 329 328 327 326 325 324 324 322 324 325 323 322 321 320 319 320 320 319 319 318 318 318 317 318 316

GFSFLT2_sfc_thetae_114.txt.gz
Theta_e
339 341 344 344 343 343 343 344 345 346 346 347 346 345 345 346 346 346 346 346 346 345 343 341 341 341 338 335 333 334 333 333
338 338 340 341 343 341 341 342 342 342 344 344 342 342 343 343 343 344 344 345 344 343 341 340 340 337 334 333 333 332 332 332
337 337 336 335 338 342 342 343 341 340 340 340 338 340 340 341 340 341 342 341 341 341 340 338 336 334 333 332 333 331 332 333
337 336 336 335 339 339 338 342 340 339 339 338 338 337 337 340 338 338 339 339 339 339 338 336 333 329 329 331 329 331 332 332
338 337 336 336 336 335 336 338 337 337 337 336 335 336 335 334 333 335 333 337 335 335 334 329 327 326 327 328 328 331 330 332
339 338 337 337 337 335 335 336 335 336 337 335 335 335 333 331 331 331 330 329 333 333 331 326 325 326 327 327 327 329 329 331
340 340 338 339 338 336 335 335 335 335 335 336 336 334 334 332 330 330 330 330 330 329 325 325 324 325 326 326 326 328 329 330
341 340 340 339 338 338 336 336 336 335 335 336 336 334 333 332 331 330 329 330 329 328 326 324 323 322 323 324 325 328 328 328
341 341 340 339 338 339 338 337 338 336 336 335 335 334 331 331 331 330 330 330 327 326 324 322 320 322 321 323 326 327 327 328
339 342 340 339 338 339 339 337 338 336 336 336 335 334 333 330 329 329 328 329 328 326 326 324 323 324 320 321 323 327 328 328
336 339 339 338 338 338 338 336 336 335 333 335 335 335 333 331 330 328 328 327 327 327 326 326 324 323 323 323 325 325 327 329
334 337 337 339 338 336 335 333 332 334 333 332 332 335 333 330 328 328 330 330 327 326 326 326 325 323 323 324 324 325 327 327
330 334 336 338 336 333 331 331 330 330 332 332 330 331 332 331 329 327 327 328 328 328 327 325 323 325 323 322 321 323 325 325
328 333 336 337 337 336 333 332 328 330 329 330 331 329 330 329 328 327 327 326 326 327 326 323 324 325 319 318 312 316 322 323
324 331 336 337 337 334 328 326 325 323 326 328 328 330 330 330 328 327 325 326 326 325 325 324 320 322 322 317 310 309 315 320
316 322 333 336 337 333 330 329 326 328 328 328 328 329 329 329 328 326 325 326 325 324 325 323 321 318 321 321 318 316 311 309
310 313 318 332 333 334 331 330 331 324 325 324 327 327 328 328 326 323 321 320 319 321 322 321 321 319 319 316 317 315 315 313
304 306 309 315 322 331 331 329 327 324 324 324 325 325 324 326 325 323 321 318 317 318 321 321 320 321 321 318 316 314 312 313
302 302 304 308 311 321 330 331 327 325 325 325 324 323 323 325 324 322 319 319 319 318 319 320 320 320 318 318 318 316 315 313
298 301 303 307 308 312 329 330 327 327 325 326 324 324 324 324 325 323 320 319 320 318 318 319 320 320 318 318 317 317 317 316

GFSFLT2_sfc_thetae_117.txt.gz
Theta_e
340 342 344 344 343 343 342 343 345 345 346 346 347 346 345 346 346 346 346 346 346 345 342 341 341 340 337 335 334 336 333 334
337 339 341 342 343 341 340 341 342 343 344 343 343 342 343 344 344 344 345 345 345 343 341 340 340 337 335 334 332 334 332 332
336 337 338 340 343 343 341 342 341 341 343 342 339 340 340 342 341 341 342 342 342 342 340 338 335 333 334 333 332 330 331 332
334 335 336 336 341 342 343 343 340 338 340 340 340 337 337 339 339 339 340 340 340 339 338 337 333 329 329 332 329 329 330 331
334 335 335 335 337 339 339 340 339 334 334 336 336 336 335 335 334 336 335 338 335 335 335 331 328 326 325 325 326 327 328 332
334 335 335 335 335 336 337 337 338 338 336 334 337 335 332 331 331 331 331 331 331 330 332 327 325 325 325 325 326 326 327 331
334 335 334 334 334 333 334 335 336 337 337 336 337 336 335 330 329 330 328 327 333 331 330 325 323 324 325 325 325 325 326 328
336 334 334 334 334 332 333 333 334 333 334 336 335 336 334 331 329 329 327 328 327 329 326 324 323 323 323 326 324 325 325 326
337 335 335 334 334 334 333 333 333 332 332 332 334 333 332 331 330 328 328 328 325 324 322 321 320 321 321 324 323 324 324 325
340 340 337 336 335 336 335 334 334 334 334 334 334 333 331 330 330 329 328 327 326 324 325 324 319 319 318 319 321 323 324 325
338 339 338 337 336 336 336 335 335 335 335 334 333 333 332 330 329 328 327 328 327 326 326 326 323 322 322 318 321 322 323 327
337 339 338 338 338 334 334 331 334 334 334 335 334 334 332 330 329 326 327 328 328 327 326 326 324 324 323 323 323 325 326 327
331 334 337 337 335 332 332 331 332 332 333 334 334 334 332 330 328 326 328 329 328 327 326 324 323 324 322 321 322 323 324 326
316 331 335 336 337 335 335 334 330 332 328 329 332 332 331 330 328 326 328 329 327 327 326 324 324 324 320 317 313 317 321 324
314 325 331 335 337 336 327 327 326 325 327 329 329 330 330 330 328 327 327 328 327 327 327 324 321 323 322 317 310 310 315 321
307 312 322 332 334 333 328 329 327 329 330 331 329 329 328 329 328 326 326 327 326 327 326 325 324 320 322 321 318 316 312 310
303 306 309 315 323 333 330 327 327 324 325 328 327 327 328 328 327 325 325 326 328 326 324 324 323 321 320 318 319 317 315 312
301 303 305 309 313 316 330 329 326 323 322 325 326 325 326 327 327 326 325 325 322 322 322 323 322 320 320 317 316 313 314 314
299 301 302 304 309 311 315 330 328 326 325 325 325 325 324 325 326 326 325 322 319 319 321 321 320 320 319 318 318 318 318 317
296 298 300 302 305 308 312 317 330 328 328 327 325 325 325 326 326 325 324 320 320 321 320 319 319 319 318 317 318 318 317 317

GFSFLT2_sfc_thetae_123.txt.gz
Theta_e
349 350 349 344 343 343 342 343 344 345 346 347 347 347 346 347 347 348 348 347 346 344 342 341 342 341 339 337 336 337 345 346
347 348 350 351 351 341 340 341 341 342 344 344 343 343 344 344 344 346 346 346 345 343 341 340 340 338 336 335 334 336 343 343
346 346 348 349 348 347 342 342 341 341 343 342 341 350 350 348 344 342 344 344 343 341 340 338 337 336 336 334 335 343 343 342
343 345 345 346 344 345 348 348 347 348 348 349 349 350 350 347 344 340 341 341 340 340 339 336 337 342 342 335 341 342 342 342
340 342 344 343 342 343 345 345 344 345 347 348 349 348 349 348 349 346 348 342 345 342 342 342 339 338 342 342 341 340 341 341
339 341 341 341 342 340 341 341 341 341 341 343 343 343 346 347 346 347 346 346 345 344 342 338 342 340 340 341 340 340 339 340
337 338 338 337 339 340 340 339 340 340 340 342 342 342 341 344 345 345 346 346 344 342 340 341 340 339 338 337 337 338 339 338
336 338 339 339 338 339 338 339 340 340 340 341 342 343 340 340 341 343 342 344 343 342 339 339 339 338 336 333 334 336 336 337
335 337 339 339 338 338 337 337 337 338 338 340 341 341 341 339 337 340 342 341 341 339 336 334 338 336 333 331 335 335 335 335
337 336 338 338 339 338 337 337 336 335 336 337 337 339 339 337 335 336 340 337 335 332 330 330 335 335 335 334 334 334 334 333
338 337 336 338 339 338 339 338 335 334 335 335 335 337 338 335 335 335 338 337 334 331 329 330 328 329 333 334 333 332 333 332
340 339 339 338 337 337 337 337 337 338 336 337 337 335 335 336 336 335 335 333 333 332 331 330 330 329 328 329 330 331 332 332
337 339 339 337 335 334 334 333 335 336 336 338 338 339 335 337 335 334 333 333 332 332 330 327 327 328 324 323 324 327 326 328
315 329 340 338 337 337 337 337 337 337 337 336 338 338 338 338 336 333 332 332 332 331 329 326 327 327 324 323 318 322 324 329
310 314 321 339 341 339 338 338 337 334 334 334 334 337 338 338 337 334 332 333 330 329 328 329 324 327 330 327 317 317 321 325
309 315 319 324 335 338 335 334 331 334 333 333 333 337 338 338 336 334 333 333 333 331 332 333 331 325 327 328 329 326 319 318
306 312 313 315 323 329 335 334 338 338 337 334 333 335 337 337 335 333 333 333 333 331 331 332 331 329 326 325 324 323 324 320
303 305 306 309 312 313 317 331 334 332 335 333 332 334 333 333 333 333 332 331 332 331 332 333 331 329 329 327 324 320 318 320
298 300 300 304 305 307 309 312 315 323 334 333 332 331 330 330 331 330 331 331 331 331 330 333 332 330 330 328 328 327 328 323
295 297 297 300 301 303 306 309 311 315 319 327 331 330 332 331 331 332 332 330 330 330 329 329 329 329 329 327 326 326 327 322